Time,TemperatureF,DewpointF,PressureIn,WindDirection,WindDirectionDegrees,WindSpeedMPH,WindSpeedGustMPH,Humidity,HourlyPrecipIn,Conditions,Clouds,dailyrainin,SolarRadiationWatts/m^2,SoftwareType,DateUTC
2013-10-24 00:00:00,42.6,34.9,29.93,WNW,302,2.0,3.0,74,0.00,,,0.00,0,WeatherCatV1.20B785,2013-10-24 04:00:00,
2013-10-24 00:01:00,42.6,34.9,29.93,WNW,296,3.0,5.0,74,0.00,,,0.00,0,WeatherCatV1.20B785,2013-10-24 04:01:00,
2013-10-24 00:06:00,42.4,34.7,29.93,West,270,3.0,3.0,74,0.00,,,0.00,0,WeatherCatV1.20B785,2013-10-24 04:06:00,
2013-10-24 00:07:00,42.4,34.4,29.93,WNW,285,5.0,6.0,73,0.00,,,0.00,0,WeatherCatV1.20B785,2013-10-24 04:07:00,
2013-10-24 00:11:00,42.4,34.7,29.93,WNW,294,1.0,4.0,74,0.00,,,0.00,0,WeatherCatV1.20B785,2013-10-24 04:11:00,
2013-10-24 00:12:00,42.4,34.7,29.93,WSW,250,4.0,4.0,74,0.00,,,0.00,0,WeatherCatV1.20B785,2013-10-24 04:12:00,
2013-10-24 00:16:00,42.4,34.7,29.93,West,266,2.0,7.0,74,0.00,,,0.00,0,WeatherCatV1.20B785,2013-10-24 04:16:00,
2013-10-24 00:17:00,42.4,34.7,29.93,West,266,1.0,7.0,74,0.00,,,0.00,0,WeatherCatV1.20B785,2013-10-24 04:17:00,
2013-10-24 00:18:00,42.4,34.7,29.93,WNW,288,0.0,3.0,74,0.00,,,0.00,0,WeatherCatV1.20B785,2013-10-24 04:18:00,
2013-10-24 00:22:00,42.2,34.5,29.93,SW,231,0.0,4.0,74,0.00,,,0.00,0,WeatherCatV1.20B785,2013-10-24 04:22:00,
2013-10-24 00:23:00,42.3,34.6,29.93,WSW,243,3.0,4.0,74,0.00,,,0.00,0,WeatherCatV1.20B785,2013-10-24 04:23:00,
2013-10-24 00:27:00,42.1,34.4,29.94,WSW,256,3.0,3.0,74,0.00,,,0.00,0,WeatherCatV1.20B785,2013-10-24 04:27:00,
2013-10-24 00:28:00,42.0,34.3,29.94,West,266,3.0,4.0,74,0.00,,,0.00,0,WeatherCatV1.20B785,2013-10-24 04:28:00,
2013-10-24 00:29:00,42.0,34.3,29.94,WSW,241,3.0,4.0,74,0.00,,,0.00,0,WeatherCatV1.20B785,2013-10-24 04:29:00,
2013-10-24 00:33:00,41.9,34.6,29.94,WSW,255,0.0,1.0,75,0.00,,,0.00,0,WeatherCatV1.20B785,2013-10-24 04:33:00,
2013-10-24 00:34:00,41.9,34.9,29.94,WSW,255,0.0,1.0,76,0.00,,,0.00,0,WeatherCatV1.20B785,2013-10-24 04:34:00,
2013-10-24 00:38:00,41.6,34.6,29.94,West,265,0.0,2.0,76,0.00,,,0.00,0,WeatherCatV1.20B785,2013-10-24 04:38:00,
2013-10-24 00:39:00,41.5,34.5,29.94,West,277,0.0,1.0,76,0.00,,,0.00,0,WeatherCatV1.20B785,2013-10-24 04:39:00,
2013-10-24 00:40:00,41.4,34.4,29.94,South,183,0.0,1.0,76,0.00,,,0.00,0,WeatherCatV1.20B785,2013-10-24 04:40:00,
2013-10-24 00:43:00,41.1,34.5,29.94,South,187,0.0,0.0,77,0.00,,,0.00,0,WeatherCatV1.20B785,2013-10-24 04:43:00,
2013-10-24 00:44:00,41.1,34.5,29.94,South,187,0.0,0.0,77,0.00,,,0.00,0,WeatherCatV1.20B785,2013-10-24 04:44:00,
2013-10-24 00:45:00,41.0,34.3,29.94,South,187,0.0,0.0,77,0.00,,,0.00,0,WeatherCatV1.20B785,2013-10-24 04:45:00,
2013-10-24 00:49:00,40.8,34.2,29.94,SSE,147,0.0,1.0,77,0.00,,,0.00,0,WeatherCatV1.20B785,2013-10-24 04:49:00,
2013-10-24 00:50:00,40.7,34.4,29.94,SSE,147,0.0,1.0,78,0.00,,,0.00,0,WeatherCatV1.20B785,2013-10-24 04:50:00,
2013-10-24 00:52:00,40.6,34.3,29.94,SSE,147,0.0,1.0,78,0.00,,,0.00,0,WeatherCatV1.20B785,2013-10-24 04:52:00,
2013-10-24 00:54:00,40.5,34.2,29.94,NW,305,0.0,2.0,78,0.00,,,0.00,0,WeatherCatV1.20B785,2013-10-24 04:54:00,
2013-10-24 00:55:00,40.4,34.1,29.94,NW,305,0.0,2.0,78,0.00,,,0.00,0,WeatherCatV1.20B785,2013-10-24 04:55:00,
2013-10-24 00:58:00,40.0,34.3,29.94,North,355,0.0,0.0,80,0.00,,,0.00,0,WeatherCatV1.20B785,2013-10-24 04:58:00,
2013-10-24 00:59:00,39.9,34.2,29.94,North,3,0.0,1.0,80,0.00,,,0.00,0,WeatherCatV1.20B785,2013-10-24 04:59:00,
2013-10-24 01:00:00,39.9,34.2,29.94,North,3,0.0,1.0,80,0.00,,,0.00,0,WeatherCatV1.20B785,2013-10-24 05:00:00,
2013-10-24 01:01:00,39.8,34.1,29.94,North,3,0.0,0.0,80,0.00,,,0.00,0,WeatherCatV1.20B785,2013-10-24 05:01:00,
2013-10-24 01:02:00,39.8,34.1,29.94,North,3,0.0,0.0,80,0.00,,,0.00,0,WeatherCatV1.20B785,2013-10-24 05:02:00,
2013-10-24 01:03:00,39.7,34.0,29.94,North,3,0.0,0.0,80,0.00,,,0.00,0,WeatherCatV1.20B785,2013-10-24 05:03:00,
2013-10-24 01:04:00,39.6,34.0,29.94,WNW,289,0.0,1.0,80,0.00,,,0.00,0,WeatherCatV1.20B785,2013-10-24 05:04:00,
2013-10-24 01:05:00,39.6,34.0,29.94,NW,325,0.0,1.0,80,0.00,,,0.00,0,WeatherCatV1.20B785,2013-10-24 05:05:00,
2013-10-24 01:06:00,39.5,33.8,29.94,NW,325,0.0,1.0,80,0.00,,,0.00,0,WeatherCatV1.20B785,2013-10-24 05:06:00,
2013-10-24 01:07:00,39.5,34.2,29.94,NW,325,0.0,1.0,81,0.00,,,0.00,0,WeatherCatV1.20B785,2013-10-24 05:07:00,
2013-10-24 01:08:00,39.4,34.1,29.94,NW,325,0.0,0.0,81,0.00,,,0.00,0,WeatherCatV1.20B785,2013-10-24 05:08:00,
2013-10-24 01:10:00,39.3,34.0,29.94,NW,325,0.0,0.0,81,0.00,,,0.00,0,WeatherCatV1.20B785,2013-10-24 05:10:00,
2013-10-24 01:12:00,39.2,33.9,29.94,WSW,239,1.0,4.0,81,0.00,,,0.00,0,WeatherCatV1.20B785,2013-10-24 05:12:00,
2013-10-24 01:13:00,39.2,33.9,29.94,SSE,154,0.0,1.0,81,0.00,,,0.00,0,WeatherCatV1.20B785,2013-10-24 05:13:00,
2013-10-24 01:14:00,39.2,33.9,29.94,SSE,154,0.0,1.0,81,0.00,,,0.00,0,WeatherCatV1.20B785,2013-10-24 05:14:00,
2013-10-24 01:15:00,39.1,34.1,29.94,SSE,154,0.0,0.0,82,0.00,,,0.00,0,WeatherCatV1.20B785,2013-10-24 05:15:00,
2013-10-24 01:16:00,39.0,34.0,29.94,West,281,0.0,0.0,82,0.00,,,0.00,0,WeatherCatV1.20B785,2013-10-24 05:16:00,
2013-10-24 01:17:00,39.0,34.0,29.94,West,280,0.0,0.0,82,0.00,,,0.00,0,WeatherCatV1.20B785,2013-10-24 05:17:00,
2013-10-24 01:19:00,38.9,33.9,29.94,NW,321,2.0,3.0,82,0.00,,,0.00,0,WeatherCatV1.20B785,2013-10-24 05:19:00,
2013-10-24 01:20:00,38.9,33.9,29.95,WSW,248,0.0,3.0,82,0.00,,,0.00,0,WeatherCatV1.20B785,2013-10-24 05:20:00,
2013-10-24 01:21:00,38.9,33.9,29.94,WSW,248,0.0,1.0,82,0.00,,,0.00,0,WeatherCatV1.20B785,2013-10-24 05:21:00,
2013-10-24 01:23:00,39.0,34.0,29.94,East,96,2.0,3.0,82,0.00,,,0.00,0,WeatherCatV1.20B785,2013-10-24 05:23:00,
2013-10-24 01:24:00,39.0,34.0,29.95,East,96,0.0,2.0,82,0.00,,,0.00,0,WeatherCatV1.20B785,2013-10-24 05:24:00,
2013-10-24 01:25:00,39.0,34.0,29.95,East,96,0.0,0.0,82,0.00,,,0.00,0,WeatherCatV1.20B785,2013-10-24 05:25:00,
2013-10-24 01:26:00,39.0,34.0,29.95,East,96,0.0,0.0,82,0.00,,,0.00,0,WeatherCatV1.20B785,2013-10-24 05:26:00,
2013-10-24 01:28:00,39.0,33.7,29.95,East,96,0.0,0.0,81,0.00,,,0.00,0,WeatherCatV1.20B785,2013-10-24 05:28:00,
2013-10-24 01:30:00,38.9,33.6,29.95,East,96,0.0,0.0,81,0.00,,,0.00,0,WeatherCatV1.20B785,2013-10-24 05:30:00,
2013-10-24 01:31:00,38.9,33.6,29.95,East,96,0.0,0.0,81,0.00,,,0.00,0,WeatherCatV1.20B785,2013-10-24 05:31:00,
2013-10-24 01:34:00,38.8,33.8,29.95,East,96,0.0,1.0,82,0.00,,,0.00,0,WeatherCatV1.20B785,2013-10-24 05:34:00,
2013-10-24 01:36:00,38.8,33.8,29.95,East,96,0.0,3.0,82,0.00,,,0.00,0,WeatherCatV1.20B785,2013-10-24 05:36:00,
2013-10-24 01:37:00,38.8,33.8,29.95,ESE,104,0.0,3.0,82,0.00,,,0.00,0,WeatherCatV1.20B785,2013-10-24 05:37:00,
2013-10-24 01:39:00,38.8,33.8,29.95,SE,145,1.0,2.0,82,0.00,,,0.00,0,WeatherCatV1.20B785,2013-10-24 05:39:00,
2013-10-24 01:42:00,38.7,33.7,29.95,SSE,152,0.0,1.0,82,0.00,,,0.00,0,WeatherCatV1.20B785,2013-10-24 05:42:00,
2013-10-24 01:43:00,38.6,33.9,29.95,SSE,152,0.0,1.0,83,0.00,,,0.00,0,WeatherCatV1.20B785,2013-10-24 05:43:00,
2013-10-24 01:44:00,38.6,33.9,29.95,SSE,152,1.0,1.0,83,0.00,,,0.00,0,WeatherCatV1.20B785,2013-10-24 05:44:00,
2013-10-24 01:45:00,38.4,33.7,29.95,SSE,155,0.0,0.0,83,0.00,,,0.00,0,WeatherCatV1.20B785,2013-10-24 05:45:00,
2013-10-24 01:47:00,38.3,33.6,29.95,SSE,155,0.0,0.0,83,0.00,,,0.00,0,WeatherCatV1.20B785,2013-10-24 05:47:00,
2013-10-24 01:48:00,38.2,33.5,29.95,SSE,155,0.0,0.0,83,0.00,,,0.00,0,WeatherCatV1.20B785,2013-10-24 05:48:00,
2013-10-24 01:49:00,38.2,33.5,29.95,SSE,155,0.0,0.0,83,0.00,,,0.00,0,WeatherCatV1.20B785,2013-10-24 05:49:00,
2013-10-24 01:51:00,38.0,33.3,29.95,SSE,155,0.0,0.0,83,0.00,,,0.00,0,WeatherCatV1.20B785,2013-10-24 05:51:00,
2013-10-24 01:52:00,37.9,33.5,29.95,SSE,154,0.0,0.0,84,0.00,,,0.00,0,WeatherCatV1.20B785,2013-10-24 05:52:00,
2013-10-24 01:53:00,37.9,33.5,29.95,SSE,154,0.0,0.0,84,0.00,,,0.00,0,WeatherCatV1.20B785,2013-10-24 05:53:00,
2013-10-24 01:54:00,37.8,33.4,29.95,SSE,154,0.0,0.0,84,0.00,,,0.00,0,WeatherCatV1.20B785,2013-10-24 05:54:00,
2013-10-24 01:57:00,37.6,33.2,29.95,SSE,154,0.0,0.0,84,0.00,,,0.00,0,WeatherCatV1.20B785,2013-10-24 05:57:00,
2013-10-24 01:58:00,37.5,33.1,29.95,SW,223,0.0,1.0,84,0.00,,,0.00,0,WeatherCatV1.20B785,2013-10-24 05:58:00,
2013-10-24 01:59:00,37.4,33.0,29.95,WNW,284,1.0,1.0,84,0.00,,,0.00,0,WeatherCatV1.20B785,2013-10-24 05:59:00,
2013-10-24 02:00:00,37.3,32.9,29.95,WNW,284,0.0,1.0,84,0.00,,,0.00,0,WeatherCatV1.20B785,2013-10-24 06:00:00,
2013-10-24 02:02:00,37.2,33.1,29.95,WNW,284,0.0,1.0,85,0.00,,,0.00,0,WeatherCatV1.20B785,2013-10-24 06:02:00,
2013-10-24 02:03:00,37.1,33.0,29.96,WNW,284,0.0,1.0,85,0.00,,,0.00,0,WeatherCatV1.20B785,2013-10-24 06:03:00,
2013-10-24 02:04:00,37.0,32.9,29.96,WNW,284,1.0,1.0,85,0.00,,,0.00,0,WeatherCatV1.20B785,2013-10-24 06:04:00,
2013-10-24 02:06:00,36.9,32.8,29.96,WNW,284,1.0,1.0,85,0.00,,,0.00,0,WeatherCatV1.20B785,2013-10-24 06:06:00,
2013-10-24 02:07:00,36.8,32.7,29.96,WNW,284,0.0,1.0,85,0.00,,,0.00,0,WeatherCatV1.20B785,2013-10-24 06:07:00,
2013-10-24 02:08:00,36.8,32.7,29.96,WNW,284,1.0,1.0,85,0.00,,,0.00,0,WeatherCatV1.20B785,2013-10-24 06:08:00,
2013-10-24 02:10:00,36.6,32.8,29.96,WNW,284,0.0,0.0,86,0.00,,,0.00,0,WeatherCatV1.20B785,2013-10-24 06:10:00,
2013-10-24 02:11:00,36.5,32.7,29.96,WNW,284,0.0,0.0,86,0.00,,,0.00,0,WeatherCatV1.20B785,2013-10-24 06:11:00,
2013-10-24 02:13:00,36.4,32.6,29.96,WNW,284,0.0,0.0,86,0.00,,,0.00,0,WeatherCatV1.20B785,2013-10-24 06:13:00,
2013-10-24 02:15:00,36.2,32.4,29.96,WNW,289,0.0,2.0,86,0.00,,,0.00,0,WeatherCatV1.20B785,2013-10-24 06:15:00,
2013-10-24 02:16:00,36.1,32.3,29.96,WNW,288,0.0,2.0,86,0.00,,,0.00,0,WeatherCatV1.20B785,2013-10-24 06:16:00,
2013-10-24 02:18:00,36.0,32.5,29.96,WNW,288,0.0,0.0,87,0.00,,,0.00,0,WeatherCatV1.20B785,2013-10-24 06:18:00,
2013-10-24 02:19:00,36.0,32.5,29.96,WNW,288,0.0,0.0,87,0.00,,,0.00,0,WeatherCatV1.20B785,2013-10-24 06:19:00,
2013-10-24 02:20:00,35.9,32.4,29.96,WNW,288,0.0,0.0,87,0.00,,,0.00,0,WeatherCatV1.20B785,2013-10-24 06:20:00,
2013-10-24 02:22:00,35.9,32.4,29.96,WNW,288,0.0,0.0,87,0.00,,,0.00,0,WeatherCatV1.20B785,2013-10-24 06:22:00,
2013-10-24 02:23:00,35.8,32.3,29.96,WNW,288,0.0,0.0,87,0.00,,,0.00,0,WeatherCatV1.20B785,2013-10-24 06:23:00,
2013-10-24 02:24:00,35.8,32.3,29.96,WNW,288,0.0,0.0,87,0.00,,,0.00,0,WeatherCatV1.20B785,2013-10-24 06:24:00,
2013-10-24 02:25:00,35.7,32.2,29.96,WNW,288,0.0,0.0,87,0.00,,,0.00,0,WeatherCatV1.20B785,2013-10-24 06:25:00,
2013-10-24 02:28:00,35.6,32.4,29.96,WNW,288,0.0,0.0,88,0.00,,,0.00,0,WeatherCatV1.20B785,2013-10-24 06:28:00,
2013-10-24 02:29:00,35.6,32.4,29.96,WNW,288,0.0,0.0,88,0.00,,,0.00,0,WeatherCatV1.20B785,2013-10-24 06:29:00,
2013-10-24 02:30:00,35.6,32.4,29.96,WNW,288,0.0,0.0,88,0.00,,,0.00,0,WeatherCatV1.20B785,2013-10-24 06:30:00,
2013-10-24 02:31:00,35.6,32.4,29.96,WNW,288,0.0,0.0,88,0.00,,,0.00,0,WeatherCatV1.20B785,2013-10-24 06:31:00,
2013-10-24 02:33:00,35.5,32.3,29.96,WNW,288,0.0,0.0,88,0.00,,,0.00,0,WeatherCatV1.20B785,2013-10-24 06:33:00,
2013-10-24 02:34:00,35.5,32.3,29.96,WNW,288,0.0,0.0,88,0.00,,,0.00,0,WeatherCatV1.20B785,2013-10-24 06:34:00,
2013-10-24 02:35:00,35.5,32.3,29.96,WNW,288,0.0,0.0,88,0.00,,,0.00,0,WeatherCatV1.20B785,2013-10-24 06:35:00,
2013-10-24 02:36:00,35.5,32.3,29.96,WNW,288,0.0,0.0,88,0.00,,,0.00,0,WeatherCatV1.20B785,2013-10-24 06:36:00,
2013-10-24 02:39:00,35.4,32.2,29.96,WNW,288,0.0,0.0,88,0.00,,,0.00,0,WeatherCatV1.20B785,2013-10-24 06:39:00,
2013-10-24 02:40:00,35.3,32.1,29.96,WNW,288,0.0,0.0,88,0.00,,,0.00,0,WeatherCatV1.20B785,2013-10-24 06:40:00,
2013-10-24 02:41:00,35.3,32.1,29.96,WNW,288,0.0,0.0,88,0.00,,,0.00,0,WeatherCatV1.20B785,2013-10-24 06:41:00,
2013-10-24 02:42:00,35.3,32.1,29.96,WNW,288,0.0,0.0,88,0.00,,,0.00,0,WeatherCatV1.20B785,2013-10-24 06:42:00,
2013-10-24 02:44:00,35.2,32.0,29.96,WNW,288,0.0,0.0,88,0.00,,,0.00,0,WeatherCatV1.20B785,2013-10-24 06:44:00,
2013-10-24 02:45:00,35.2,32.3,29.96,WNW,288,0.0,0.0,89,0.00,,,0.00,0,WeatherCatV1.20B785,2013-10-24 06:45:00,
2013-10-24 02:46:00,35.2,32.3,29.96,WNW,288,0.0,0.0,89,0.00,,,0.00,0,WeatherCatV1.20B785,2013-10-24 06:46:00,
2013-10-24 02:47:00,35.1,32.2,29.96,WNW,288,0.0,0.0,89,0.00,,,0.00,0,WeatherCatV1.20B785,2013-10-24 06:47:00,
2013-10-24 02:49:00,35.1,32.2,29.96,WNW,288,0.0,0.0,89,0.00,,,0.00,0,WeatherCatV1.20B785,2013-10-24 06:49:00,
2013-10-24 02:50:00,35.0,32.1,29.96,WNW,288,0.0,0.0,89,0.00,,,0.00,0,WeatherCatV1.20B785,2013-10-24 06:50:00,
2013-10-24 02:51:00,35.0,32.1,29.96,WNW,288,0.0,0.0,89,0.00,,,0.00,0,WeatherCatV1.20B785,2013-10-24 06:51:00,
2013-10-24 02:52:00,35.0,32.1,29.96,WNW,288,0.0,0.0,89,0.00,,,0.00,0,WeatherCatV1.20B785,2013-10-24 06:52:00,
2013-10-24 02:54:00,35.0,32.1,29.96,WNW,288,0.0,0.0,89,0.00,,,0.00,0,WeatherCatV1.20B785,2013-10-24 06:54:00,
2013-10-24 02:55:00,35.0,32.1,29.96,WNW,288,0.0,0.0,89,0.00,,,0.00,0,WeatherCatV1.20B785,2013-10-24 06:55:00,
2013-10-24 02:56:00,34.9,32.0,29.96,WNW,288,0.0,0.0,89,0.00,,,0.00,0,WeatherCatV1.20B785,2013-10-24 06:56:00,
2013-10-24 02:57:00,34.9,32.0,29.97,WNW,288,0.0,0.0,89,0.00,,,0.00,0,WeatherCatV1.20B785,2013-10-24 06:57:00,
2013-10-24 02:59:00,34.8,31.9,29.97,WNW,288,0.0,0.0,89,0.00,,,0.00,0,WeatherCatV1.20B785,2013-10-24 06:59:00,
2013-10-24 03:01:00,34.8,31.9,29.96,WNW,288,0.0,0.0,89,0.00,,,0.00,0,WeatherCatV1.20B785,2013-10-24 07:01:00,
2013-10-24 03:02:00,34.8,31.9,29.96,WNW,288,0.0,0.0,89,0.00,,,0.00,0,WeatherCatV1.20B785,2013-10-24 07:02:00,
2013-10-24 03:03:00,34.7,31.8,29.96,WNW,288,0.0,0.0,89,0.00,,,0.00,0,WeatherCatV1.20B785,2013-10-24 07:03:00,
2013-10-24 03:05:00,34.6,31.7,29.96,WNW,288,0.0,0.0,89,0.00,,,0.00,0,WeatherCatV1.20B785,2013-10-24 07:05:00,
2013-10-24 03:06:00,34.6,31.7,29.96,WNW,288,0.0,0.0,89,0.00,,,0.00,0,WeatherCatV1.20B785,2013-10-24 07:06:00,
2013-10-24 03:07:00,34.5,31.6,29.96,WNW,288,0.0,0.0,89,0.00,,,0.00,0,WeatherCatV1.20B785,2013-10-24 07:07:00,
2013-10-24 03:08:00,34.5,31.6,29.96,WNW,288,0.0,0.0,89,0.00,,,0.00,0,WeatherCatV1.20B785,2013-10-24 07:08:00,
2013-10-24 03:11:00,34.3,31.4,29.96,WNW,288,0.0,0.0,89,0.00,,,0.00,0,WeatherCatV1.20B785,2013-10-24 07:11:00,
2013-10-24 03:12:00,34.2,31.3,29.96,WNW,288,0.0,0.0,89,0.00,,,0.00,0,WeatherCatV1.20B785,2013-10-24 07:12:00,
2013-10-24 03:13:00,34.2,31.3,29.96,WNW,288,0.0,0.0,89,0.00,,,0.00,0,WeatherCatV1.20B785,2013-10-24 07:13:00,
2013-10-24 03:14:00,34.1,31.2,29.96,WNW,288,0.0,0.0,89,0.00,,,0.00,0,WeatherCatV1.20B785,2013-10-24 07:14:00,
2013-10-24 03:16:00,34.0,31.1,29.96,NW,319,0.0,0.0,89,0.00,,,0.00,0,WeatherCatV1.20B785,2013-10-24 07:16:00,
2013-10-24 03:17:00,33.9,31.0,29.96,NW,319,0.0,0.0,89,0.00,,,0.00,0,WeatherCatV1.20B785,2013-10-24 07:17:00,
2013-10-24 03:18:00,33.9,31.3,29.96,NW,320,0.0,0.0,90,0.00,,,0.00,0,WeatherCatV1.20B785,2013-10-24 07:18:00,
2013-10-24 03:19:00,33.9,31.3,29.96,North,359,1.0,1.0,90,0.00,,,0.00,0,WeatherCatV1.20B785,2013-10-24 07:19:00,
2013-10-24 03:22:00,33.9,31.3,29.96,ENE,68,1.0,2.0,90,0.00,,,0.00,0,WeatherCatV1.20B785,2013-10-24 07:22:00,
2013-10-24 03:23:00,34.0,31.4,29.96,ENE,68,0.0,1.0,90,0.00,,,0.00,0,WeatherCatV1.20B785,2013-10-24 07:23:00,
2013-10-24 03:24:00,34.0,31.4,29.96,ENE,68,0.0,1.0,90,0.00,,,0.00,0,WeatherCatV1.20B785,2013-10-24 07:24:00,
2013-10-24 03:28:00,34.1,31.5,29.96,ENE,68,0.0,0.0,90,0.00,,,0.00,0,WeatherCatV1.20B785,2013-10-24 07:28:00,
2013-10-24 03:29:00,34.1,31.5,29.97,ENE,68,0.0,0.0,90,0.00,,,0.00,0,WeatherCatV1.20B785,2013-10-24 07:29:00,
2013-10-24 03:30:00,34.0,31.4,29.97,ENE,68,0.0,0.0,90,0.00,,,0.00,0,WeatherCatV1.20B785,2013-10-24 07:30:00,
2013-10-24 03:33:00,34.0,31.4,29.97,ENE,68,0.0,0.0,90,0.00,,,0.00,0,WeatherCatV1.20B785,2013-10-24 07:33:00,
2013-10-24 03:34:00,34.0,31.4,29.97,ENE,68,0.0,0.0,90,0.00,,,0.00,0,WeatherCatV1.20B785,2013-10-24 07:34:00,
2013-10-24 03:35:00,34.0,31.4,29.97,ENE,68,0.0,0.0,90,0.00,,,0.00,0,WeatherCatV1.20B785,2013-10-24 07:35:00,
2013-10-24 03:38:00,33.9,31.3,29.97,ENE,68,0.0,0.0,90,0.00,,,0.00,0,WeatherCatV1.20B785,2013-10-24 07:38:00,
2013-10-24 03:39:00,33.9,31.3,29.97,ENE,68,0.0,0.0,90,0.00,,,0.00,0,WeatherCatV1.20B785,2013-10-24 07:39:00,
2013-10-24 03:40:00,33.9,31.3,29.97,ENE,68,0.0,0.0,90,0.00,,,0.00,0,WeatherCatV1.20B785,2013-10-24 07:40:00,
2013-10-24 03:41:00,34.0,31.4,29.97,ENE,68,0.0,0.0,90,0.00,,,0.00,0,WeatherCatV1.20B785,2013-10-24 07:41:00,
2013-10-24 03:43:00,34.0,31.4,29.97,ENE,68,0.0,0.0,90,0.00,,,0.00,0,WeatherCatV1.20B785,2013-10-24 07:43:00,
2013-10-24 03:44:00,34.0,31.4,29.97,ENE,68,0.0,0.0,90,0.00,,,0.00,0,WeatherCatV1.20B785,2013-10-24 07:44:00,
2013-10-24 03:45:00,34.0,31.4,29.97,ENE,68,0.0,0.0,90,0.00,,,0.00,0,WeatherCatV1.20B785,2013-10-24 07:45:00,
2013-10-24 03:46:00,33.9,31.3,29.97,ENE,68,0.0,0.0,90,0.00,,,0.00,0,WeatherCatV1.20B785,2013-10-24 07:46:00,
2013-10-24 03:48:00,33.9,31.3,29.97,ENE,68,0.0,0.0,90,0.00,,,0.00,0,WeatherCatV1.20B785,2013-10-24 07:48:00,
2013-10-24 03:50:00,34.0,31.4,29.97,ENE,68,0.0,0.0,90,0.00,,,0.00,0,WeatherCatV1.20B785,2013-10-24 07:50:00,
2013-10-24 03:51:00,34.0,31.4,29.97,ENE,68,0.0,0.0,90,0.00,,,0.00,0,WeatherCatV1.20B785,2013-10-24 07:51:00,
2013-10-24 03:52:00,34.0,31.4,29.97,ENE,68,0.0,0.0,90,0.00,,,0.00,0,WeatherCatV1.20B785,2013-10-24 07:52:00,
2013-10-24 03:54:00,34.1,31.5,29.97,ENE,68,0.0,0.0,90,0.00,,,0.00,0,WeatherCatV1.20B785,2013-10-24 07:54:00,
2013-10-24 03:55:00,34.0,31.4,29.97,ENE,68,0.0,0.0,90,0.00,,,0.00,0,WeatherCatV1.20B785,2013-10-24 07:55:00,
2013-10-24 03:57:00,34.1,31.5,29.97,ENE,68,0.0,0.0,90,0.00,,,0.00,0,WeatherCatV1.20B785,2013-10-24 07:57:00,
2013-10-24 03:58:00,34.1,31.5,29.97,ENE,68,0.0,0.0,90,0.00,,,0.00,0,WeatherCatV1.20B785,2013-10-24 07:58:00,
2013-10-24 03:59:00,34.1,31.5,29.97,ENE,68,0.0,0.0,90,0.00,,,0.00,0,WeatherCatV1.20B785,2013-10-24 07:59:00,
2013-10-24 04:00:00,34.0,31.4,29.97,ENE,68,0.0,0.0,90,0.00,,,0.00,0,WeatherCatV1.20B785,2013-10-24 08:00:00,
2013-10-24 04:02:00,34.0,31.4,29.97,ENE,68,0.0,0.0,90,0.00,,,0.00,0,WeatherCatV1.20B785,2013-10-24 08:02:00,
2013-10-24 04:03:00,34.0,31.4,29.97,ENE,68,0.0,0.0,90,0.00,,,0.00,0,WeatherCatV1.20B785,2013-10-24 08:03:00,
2013-10-24 04:04:00,33.9,31.3,29.97,ENE,68,0.0,0.0,90,0.00,,,0.00,0,WeatherCatV1.20B785,2013-10-24 08:04:00,
2013-10-24 04:05:00,33.9,31.3,29.97,ENE,68,0.0,0.0,90,0.00,,,0.00,0,WeatherCatV1.20B785,2013-10-24 08:05:00,
2013-10-24 04:07:00,33.8,31.2,29.97,ENE,68,0.0,0.0,90,0.00,,,0.00,0,WeatherCatV1.20B785,2013-10-24 08:07:00,
2013-10-24 04:08:00,33.8,31.2,29.97,ENE,68,0.0,0.0,90,0.00,,,0.00,0,WeatherCatV1.20B785,2013-10-24 08:08:00,
2013-10-24 04:09:00,33.7,31.1,29.97,ENE,68,0.0,0.0,90,0.00,,,0.00,0,WeatherCatV1.20B785,2013-10-24 08:09:00,
2013-10-24 04:10:00,33.7,31.1,29.97,ENE,68,0.0,0.0,90,0.00,,,0.00,0,WeatherCatV1.20B785,2013-10-24 08:10:00,
2013-10-24 04:12:00,33.6,31.0,29.97,ENE,68,0.0,0.0,90,0.00,,,0.00,0,WeatherCatV1.20B785,2013-10-24 08:12:00,
2013-10-24 04:13:00,33.6,31.0,29.97,ENE,68,0.0,0.0,90,0.00,,,0.00,0,WeatherCatV1.20B785,2013-10-24 08:13:00,
2013-10-24 04:14:00,33.6,31.0,29.97,ENE,68,0.0,0.0,90,0.00,,,0.00,0,WeatherCatV1.20B785,2013-10-24 08:14:00,
2013-10-24 04:15:00,33.6,31.0,29.97,ENE,68,0.0,0.0,90,0.00,,,0.00,0,WeatherCatV1.20B785,2013-10-24 08:15:00,
2013-10-24 04:16:00,33.6,31.0,29.97,ENE,68,0.0,0.0,90,0.00,,,0.00,0,WeatherCatV1.20B785,2013-10-24 08:16:00,
2013-10-24 04:18:00,33.5,30.9,29.97,ENE,68,0.0,0.0,90,0.00,,,0.00,0,WeatherCatV1.20B785,2013-10-24 08:18:00,
2013-10-24 04:19:00,33.5,30.9,29.97,ENE,68,0.0,0.0,90,0.00,,,0.00,0,WeatherCatV1.20B785,2013-10-24 08:19:00,
2013-10-24 04:20:00,33.5,30.9,29.97,ENE,68,0.0,0.0,90,0.00,,,0.00,0,WeatherCatV1.20B785,2013-10-24 08:20:00,
2013-10-24 04:21:00,33.5,30.9,29.97,ENE,68,0.0,0.0,90,0.00,,,0.00,0,WeatherCatV1.20B785,2013-10-24 08:21:00,
2013-10-24 04:23:00,33.5,30.9,29.97,ENE,68,0.0,1.0,90,0.00,,,0.00,0,WeatherCatV1.20B785,2013-10-24 08:23:00,
2013-10-24 04:24:00,33.5,30.9,29.97,ENE,66,1.0,2.0,90,0.00,,,0.00,0,WeatherCatV1.20B785,2013-10-24 08:24:00,
2013-10-24 04:25:00,33.5,30.9,29.97,ENE,66,0.0,2.0,90,0.00,,,0.00,0,WeatherCatV1.20B785,2013-10-24 08:25:00,
2013-10-24 04:26:00,33.5,30.9,29.97,ENE,66,1.0,2.0,90,0.00,,,0.00,0,WeatherCatV1.20B785,2013-10-24 08:26:00,
2013-10-24 04:28:00,33.5,30.9,29.97,NW,324,1.0,2.0,90,0.00,,,0.00,0,WeatherCatV1.20B785,2013-10-24 08:28:00,
2013-10-24 04:30:00,33.7,30.8,29.98,NW,310,1.0,2.0,89,0.00,,,0.00,0,WeatherCatV1.20B785,2013-10-24 08:30:00,
2013-10-24 04:31:00,33.8,30.9,29.98,West,277,2.0,3.0,89,0.00,,,0.00,0,WeatherCatV1.20B785,2013-10-24 08:31:00,
2013-10-24 04:34:00,34.1,31.2,29.98,WSW,254,1.0,3.0,89,0.00,,,0.00,0,WeatherCatV1.20B785,2013-10-24 08:34:00,
2013-10-24 04:35:00,34.1,31.2,29.98,WSW,254,2.0,2.0,89,0.00,,,0.00,0,WeatherCatV1.20B785,2013-10-24 08:35:00,
2013-10-24 04:36:00,34.5,31.6,29.98,WSW,258,2.0,2.0,89,0.00,,,0.00,0,WeatherCatV1.20B785,2013-10-24 08:36:00,
2013-10-24 04:37:00,34.6,31.7,29.98,WSW,255,2.0,2.0,89,0.00,,,0.00,0,WeatherCatV1.20B785,2013-10-24 08:37:00,
2013-10-24 04:39:00,35.0,32.4,29.97,WSW,257,1.0,2.0,90,0.00,,,0.00,0,WeatherCatV1.20B785,2013-10-24 08:39:00,
2013-10-24 04:41:00,35.3,32.7,29.98,WSW,257,1.0,2.0,90,0.00,,,0.00,0,WeatherCatV1.20B785,2013-10-24 08:41:00,
2013-10-24 04:42:00,35.4,32.8,29.98,WSW,255,1.0,2.0,90,0.00,,,0.00,0,WeatherCatV1.20B785,2013-10-24 08:42:00,
2013-10-24 04:45:00,35.7,33.1,29.98,West,269,2.0,3.0,90,0.00,,,0.00,0,WeatherCatV1.20B785,2013-10-24 08:45:00,
2013-10-24 04:46:00,35.9,33.3,29.98,WSW,257,3.0,3.0,90,0.00,,,0.00,0,WeatherCatV1.20B785,2013-10-24 08:46:00,
2013-10-24 04:47:00,35.9,33.3,29.98,West,266,3.0,4.0,90,0.00,,,0.00,0,WeatherCatV1.20B785,2013-10-24 08:47:00,
2013-10-24 04:48:00,36.1,33.5,29.98,WSW,254,2.0,4.0,90,0.00,,,0.00,0,WeatherCatV1.20B785,2013-10-24 08:48:00,
2013-10-24 04:50:00,36.5,33.6,29.98,SW,234,1.0,2.0,89,0.00,,,0.00,0,WeatherCatV1.20B785,2013-10-24 08:50:00,
2013-10-24 04:51:00,36.7,33.8,29.98,WSW,248,2.0,2.0,89,0.00,,,0.00,0,WeatherCatV1.20B785,2013-10-24 08:51:00,
2013-10-24 04:52:00,36.8,33.9,29.98,WSW,248,1.0,2.0,89,0.00,,,0.00,0,WeatherCatV1.20B785,2013-10-24 08:52:00,
2013-10-24 04:53:00,36.9,34.0,29.98,WSW,248,1.0,2.0,89,0.00,,,0.00,0,WeatherCatV1.20B785,2013-10-24 08:53:00,
2013-10-24 04:55:00,37.0,34.1,29.98,WSW,249,1.0,3.0,89,0.00,,,0.00,0,WeatherCatV1.20B785,2013-10-24 08:55:00,
2013-10-24 04:56:00,37.1,34.2,29.98,WSW,248,2.0,2.0,89,0.00,,,0.00,0,WeatherCatV1.20B785,2013-10-24 08:56:00,
2013-10-24 04:57:00,37.1,34.2,29.98,WSW,249,1.0,2.0,89,0.00,,,0.00,0,WeatherCatV1.20B785,2013-10-24 08:57:00,
2013-10-24 04:58:00,37.3,34.4,29.98,West,270,1.0,4.0,89,0.00,,,0.00,0,WeatherCatV1.20B785,2013-10-24 08:58:00,
2013-10-24 04:59:00,37.4,34.5,29.98,WSW,243,2.0,7.0,89,0.00,,,0.00,0,WeatherCatV1.20B785,2013-10-24 08:59:00,
2013-10-24 05:00:00,37.5,34.3,29.98,West,264,1.0,7.0,88,0.00,,,0.00,0,WeatherCatV1.20B785,2013-10-24 09:00:00,
2013-10-24 05:02:00,37.7,34.5,29.98,West,264,1.0,2.0,88,0.00,,,0.00,0,WeatherCatV1.20B785,2013-10-24 09:02:00,
2013-10-24 05:03:00,37.7,34.5,29.98,West,263,2.0,2.0,88,0.00,,,0.00,0,WeatherCatV1.20B785,2013-10-24 09:03:00,
2013-10-24 05:05:00,37.9,34.7,29.99,West,271,1.0,2.0,88,0.00,,,0.00,0,WeatherCatV1.20B785,2013-10-24 09:05:00,
2013-10-24 05:06:00,37.9,34.7,29.99,West,271,2.0,2.0,88,0.00,,,0.00,0,WeatherCatV1.20B785,2013-10-24 09:06:00,
2013-10-24 05:08:00,38.0,34.8,29.99,West,271,2.0,2.0,88,0.00,,,0.00,0,WeatherCatV1.20B785,2013-10-24 09:08:00,
2013-10-24 05:09:00,38.0,34.5,29.99,West,260,2.0,3.0,87,0.00,,,0.00,0,WeatherCatV1.20B785,2013-10-24 09:09:00,
2013-10-24 05:11:00,38.2,34.7,29.99,West,275,2.0,3.0,87,0.00,,,0.00,0,WeatherCatV1.20B785,2013-10-24 09:11:00,
2013-10-24 05:13:00,38.3,34.8,29.99,WSW,251,2.0,2.0,87,0.00,,,0.00,0,WeatherCatV1.20B785,2013-10-24 09:13:00,
2013-10-24 05:14:00,38.4,34.9,29.99,WSW,248,3.0,3.0,87,0.00,,,0.00,0,WeatherCatV1.20B785,2013-10-24 09:14:00,
2013-10-24 05:17:00,38.6,35.1,29.99,West,271,1.0,4.0,87,0.00,,,0.00,0,WeatherCatV1.20B785,2013-10-24 09:17:00,
2013-10-24 05:18:00,38.7,34.9,29.99,WNW,293,2.0,3.0,86,0.00,,,0.00,0,WeatherCatV1.20B785,2013-10-24 09:18:00,
2013-10-24 05:19:00,38.7,34.9,29.99,West,261,1.0,3.0,86,0.00,,,0.00,0,WeatherCatV1.20B785,2013-10-24 09:19:00,
2013-10-24 05:21:00,38.9,35.1,29.99,West,261,2.0,2.0,86,0.00,,,0.00,0,WeatherCatV1.20B785,2013-10-24 09:21:00,
2013-10-24 05:22:00,38.9,35.1,29.99,West,261,1.0,2.0,86,0.00,,,0.00,0,WeatherCatV1.20B785,2013-10-24 09:22:00,
2013-10-24 05:23:00,39.0,34.9,29.99,West,264,2.0,3.0,85,0.00,,,0.00,0,WeatherCatV1.20B785,2013-10-24 09:23:00,
2013-10-24 05:24:00,39.0,35.2,29.99,West,265,2.0,3.0,86,0.00,,,0.00,0,WeatherCatV1.20B785,2013-10-24 09:24:00,
2013-10-24 05:25:00,39.0,35.2,29.99,West,274,1.0,2.0,86,0.00,,,0.00,0,WeatherCatV1.20B785,2013-10-24 09:25:00,
2013-10-24 05:27:00,39.1,35.3,29.99,West,274,1.0,2.0,86,0.00,,,0.00,0,WeatherCatV1.20B785,2013-10-24 09:27:00,
2013-10-24 05:29:00,39.1,35.0,29.99,WSW,250,1.0,3.0,85,0.00,,,0.00,0,WeatherCatV1.20B785,2013-10-24 09:29:00,
2013-10-24 05:30:00,39.2,35.1,29.99,WSW,251,1.0,2.0,85,0.00,,,0.00,0,WeatherCatV1.20B785,2013-10-24 09:30:00,
2013-10-24 05:32:00,39.3,35.2,29.99,WSW,251,0.0,0.0,85,0.00,,,0.00,0,WeatherCatV1.20B785,2013-10-24 09:32:00,
2013-10-24 05:33:00,39.3,35.2,29.99,WSW,251,0.0,0.0,85,0.00,,,0.00,0,WeatherCatV1.20B785,2013-10-24 09:33:00,
2013-10-24 05:35:00,39.4,35.6,29.99,WSW,251,0.0,0.0,86,0.00,,,0.00,0,WeatherCatV1.20B785,2013-10-24 09:35:00,
2013-10-24 05:37:00,39.4,35.3,29.99,WSW,250,0.0,1.0,85,0.00,,,0.00,0,WeatherCatV1.20B785,2013-10-24 09:37:00,
2013-10-24 05:39:00,39.4,35.6,29.99,WSW,250,0.0,1.0,86,0.00,,,0.00,0,WeatherCatV1.20B785,2013-10-24 09:39:00,
2013-10-24 05:40:00,39.4,35.6,29.99,WSW,250,0.0,1.0,86,0.00,,,0.00,0,WeatherCatV1.20B785,2013-10-24 09:40:00,
2013-10-24 05:41:00,39.4,35.9,29.99,WSW,250,1.0,1.0,87,0.00,,,0.00,0,WeatherCatV1.20B785,2013-10-24 09:41:00,
2013-10-24 05:42:00,39.4,35.9,29.99,WSW,251,0.0,1.0,87,0.00,,,0.00,0,WeatherCatV1.20B785,2013-10-24 09:42:00,
2013-10-24 05:44:00,39.2,35.7,30.00,WSW,251,0.0,2.0,87,0.00,,,0.00,0,WeatherCatV1.20B785,2013-10-24 09:44:00,
2013-10-24 05:45:00,39.2,35.4,30.00,West,261,0.0,1.0,86,0.00,,,0.00,0,WeatherCatV1.20B785,2013-10-24 09:45:00,
2013-10-24 05:46:00,39.1,35.3,30.00,West,261,0.0,1.0,86,0.00,,,0.00,0,WeatherCatV1.20B785,2013-10-24 09:46:00,
2013-10-24 05:47:00,39.0,35.2,30.00,West,261,0.0,0.0,86,0.00,,,0.00,0,WeatherCatV1.20B785,2013-10-24 09:47:00,
2013-10-24 05:49:00,38.9,35.1,30.00,West,261,0.0,2.0,86,0.00,,,0.00,0,WeatherCatV1.20B785,2013-10-24 09:49:00,
2013-10-24 05:51:00,38.8,35.0,30.00,West,261,1.0,1.0,86,0.00,,,0.00,0,WeatherCatV1.20B785,2013-10-24 09:51:00,
2013-10-24 05:52:00,38.7,35.2,30.00,West,261,0.0,1.0,87,0.00,,,0.00,0,WeatherCatV1.20B785,2013-10-24 09:52:00,
2013-10-24 05:53:00,38.7,35.2,30.00,West,261,0.0,1.0,87,0.00,,,0.00,0,WeatherCatV1.20B785,2013-10-24 09:53:00,
2013-10-24 05:55:00,38.6,35.1,30.00,West,261,1.0,1.0,87,0.00,,,0.00,0,WeatherCatV1.20B785,2013-10-24 09:55:00,
2013-10-24 05:56:00,38.5,35.3,30.01,West,261,0.0,1.0,88,0.00,,,0.00,0,WeatherCatV1.20B785,2013-10-24 09:56:00,
2013-10-24 05:57:00,38.5,35.0,30.00,West,261,0.0,0.0,87,0.00,,,0.00,0,WeatherCatV1.20B785,2013-10-24 09:57:00,
2013-10-24 05:58:00,38.5,35.0,30.00,West,261,0.0,0.0,87,0.00,,,0.00,0,WeatherCatV1.20B785,2013-10-24 09:58:00,
2013-10-24 06:01:00,38.4,35.2,30.01,West,261,0.0,2.0,88,0.00,,,0.00,0,WeatherCatV1.20B785,2013-10-24 10:01:00,
2013-10-24 06:02:00,38.4,35.2,30.00,West,261,0.0,0.0,88,0.00,,,0.00,0,WeatherCatV1.20B785,2013-10-24 10:02:00,
2013-10-24 06:03:00,38.4,35.2,30.00,West,261,0.0,0.0,88,0.00,,,0.00,0,WeatherCatV1.20B785,2013-10-24 10:03:00,
2013-10-24 06:04:00,38.4,35.2,30.00,West,261,1.0,1.0,88,0.00,,,0.00,0,WeatherCatV1.20B785,2013-10-24 10:04:00,
2013-10-24 06:07:00,38.4,35.2,30.01,West,261,1.0,2.0,88,0.00,,,0.00,0,WeatherCatV1.20B785,2013-10-24 10:07:00,
2013-10-24 06:09:00,38.4,35.2,30.01,West,261,0.0,1.0,88,0.00,,,0.00,0,WeatherCatV1.20B785,2013-10-24 10:09:00,
2013-10-24 06:10:00,38.4,35.2,30.01,West,261,0.0,1.0,88,0.00,,,0.00,0,WeatherCatV1.20B785,2013-10-24 10:10:00,
2013-10-24 06:12:00,38.4,35.2,30.01,West,261,0.0,1.0,88,0.00,,,0.00,0,WeatherCatV1.20B785,2013-10-24 10:12:00,
2013-10-24 06:13:00,38.5,35.3,30.01,West,273,3.0,3.0,88,0.00,,,0.00,0,WeatherCatV1.20B785,2013-10-24 10:13:00,
2013-10-24 06:14:00,38.5,35.5,30.01,WSW,251,4.0,4.0,89,0.00,,,0.00,0,WeatherCatV1.20B785,2013-10-24 10:14:00,
2013-10-24 06:16:00,38.6,35.4,30.01,West,262,5.0,5.0,88,0.00,,,0.00,0,WeatherCatV1.20B785,2013-10-24 10:16:00,
2013-10-24 06:17:00,38.7,35.5,30.01,NW,326,2.0,6.0,88,0.00,,,0.00,0,WeatherCatV1.20B785,2013-10-24 10:17:00,
2013-10-24 06:18:00,38.8,35.6,30.01,SW,220,1.0,6.0,88,0.00,,,0.00,0,WeatherCatV1.20B785,2013-10-24 10:18:00,
2013-10-24 06:19:00,38.8,35.6,30.01,WSW,254,1.0,2.0,88,0.00,,,0.00,0,WeatherCatV1.20B785,2013-10-24 10:19:00,
2013-10-24 06:21:00,38.9,35.7,30.01,WSW,245,2.0,6.0,88,0.00,,,0.00,0,WeatherCatV1.20B785,2013-10-24 10:21:00,
2013-10-24 06:23:00,39.0,35.8,30.01,WSW,257,0.0,3.0,88,0.00,,,0.00,0,WeatherCatV1.20B785,2013-10-24 10:23:00,
2013-10-24 06:24:00,38.9,35.7,30.01,West,260,0.0,2.0,88,0.00,,,0.00,0,WeatherCatV1.20B785,2013-10-24 10:24:00,
2013-10-24 06:26:00,39.0,35.8,30.01,West,281,3.0,3.0,88,0.00,,,0.00,0,WeatherCatV1.20B785,2013-10-24 10:26:00,
2013-10-24 06:28:00,39.0,35.8,30.01,West,273,1.0,1.0,88,0.00,,,0.00,0,WeatherCatV1.20B785,2013-10-24 10:28:00,
2013-10-24 06:29:00,38.9,35.7,30.01,WSW,244,1.0,3.0,88,0.00,,,0.00,0,WeatherCatV1.20B785,2013-10-24 10:29:00,
2013-10-24 06:31:00,38.9,35.7,30.02,WSW,237,0.0,1.0,88,0.00,,,0.00,0,WeatherCatV1.20B785,2013-10-24 10:31:00,
2013-10-24 06:32:00,38.8,35.6,30.02,WSW,237,0.0,1.0,88,0.00,,,0.00,0,WeatherCatV1.20B785,2013-10-24 10:32:00,
2013-10-24 06:33:00,38.8,35.6,30.01,WSW,243,0.0,2.0,88,0.00,,,0.00,0,WeatherCatV1.20B785,2013-10-24 10:33:00,
2013-10-24 06:35:00,38.8,35.6,30.01,WSW,243,0.0,0.0,88,0.00,,,0.00,0,WeatherCatV1.20B785,2013-10-24 10:35:00,
2013-10-24 06:36:00,38.8,35.6,30.01,WSW,244,1.0,2.0,88,0.00,,,0.00,0,WeatherCatV1.20B785,2013-10-24 10:36:00,
2013-10-24 06:37:00,38.7,35.5,30.02,WSW,246,1.0,2.0,88,0.00,,,0.00,0,WeatherCatV1.20B785,2013-10-24 10:37:00,
2013-10-24 06:38:00,38.6,35.6,30.02,WSW,245,1.0,2.0,89,0.00,,,0.00,0,WeatherCatV1.20B785,2013-10-24 10:38:00,
2013-10-24 06:40:00,38.5,35.5,30.02,WSW,246,0.0,2.0,89,0.00,,,0.00,0,WeatherCatV1.20B785,2013-10-24 10:40:00,
2013-10-24 06:41:00,38.4,35.5,30.02,WSW,246,0.0,0.0,89,0.00,,,0.00,0,WeatherCatV1.20B785,2013-10-24 10:41:00,
2013-10-24 06:42:00,38.4,35.5,30.02,WSW,245,0.0,0.0,89,0.00,,,0.00,0,WeatherCatV1.20B785,2013-10-24 10:42:00,
2013-10-24 06:43:00,38.4,35.5,30.02,WSW,245,0.0,0.0,89,0.00,,,0.00,0,WeatherCatV1.20B785,2013-10-24 10:43:00,
2013-10-24 06:44:00,38.3,35.3,30.02,WSW,245,1.0,1.0,89,0.00,,,0.00,0,WeatherCatV1.20B785,2013-10-24 10:44:00,
2013-10-24 06:46:00,38.2,35.2,30.02,WSW,249,0.0,0.0,89,0.00,,,0.00,0,WeatherCatV1.20B785,2013-10-24 10:46:00,
2013-10-24 06:47:00,38.1,35.2,30.02,WSW,248,1.0,1.0,89,0.00,,,0.00,0,WeatherCatV1.20B785,2013-10-24 10:47:00,
2013-10-24 06:48:00,38.1,35.2,30.02,WSW,244,1.0,2.0,89,0.00,,,0.00,0,WeatherCatV1.20B785,2013-10-24 10:48:00,
2013-10-24 06:49:00,38.0,35.0,30.02,WSW,244,0.0,2.0,89,0.00,,,0.00,0,WeatherCatV1.20B785,2013-10-24 10:49:00,
2013-10-24 06:52:00,37.9,35.0,30.02,WSW,244,0.0,0.0,89,0.00,,,0.00,0,WeatherCatV1.20B785,2013-10-24 10:52:00,
2013-10-24 06:53:00,37.9,35.0,30.02,WSW,244,0.0,0.0,89,0.00,,,0.00,0,WeatherCatV1.20B785,2013-10-24 10:53:00,
2013-10-24 06:54:00,37.8,34.8,30.02,WSW,244,1.0,2.0,89,0.00,,,0.00,0,WeatherCatV1.20B785,2013-10-24 10:54:00,
2013-10-24 06:57:00,37.6,34.7,30.02,WSW,247,1.0,2.0,89,0.00,,,0.00,0,WeatherCatV1.20B785,2013-10-24 10:57:00,
2013-10-24 06:58:00,37.6,34.9,30.02,WSW,247,2.0,2.0,90,0.00,,,0.00,0,WeatherCatV1.20B785,2013-10-24 10:58:00,
2013-10-24 06:59:00,37.5,34.8,30.02,WSW,247,1.0,2.0,90,0.00,,,0.00,0,WeatherCatV1.20B785,2013-10-24 10:59:00,
2013-10-24 07:02:00,37.3,34.6,30.02,WSW,249,2.0,2.0,90,0.00,,,0.00,0,WeatherCatV1.20B785,2013-10-24 11:02:00,
2013-10-24 07:03:00,37.3,34.6,30.02,WSW,249,0.0,2.0,90,0.00,,,0.00,0,WeatherCatV1.20B785,2013-10-24 11:03:00,
2013-10-24 07:04:00,37.2,34.5,30.02,WSW,249,0.0,1.0,90,0.00,,,0.00,0,WeatherCatV1.20B785,2013-10-24 11:04:00,
2013-10-24 07:05:00,37.1,34.4,30.02,WSW,249,0.0,1.0,90,0.00,,,0.00,0,WeatherCatV1.20B785,2013-10-24 11:05:00,
2013-10-24 07:06:00,37.1,34.4,30.02,WSW,249,0.0,1.0,90,0.00,,,0.00,0,WeatherCatV1.20B785,2013-10-24 11:06:00,
2013-10-24 07:07:00,37.1,34.4,30.02,WSW,249,1.0,1.0,90,0.00,,,0.00,0,WeatherCatV1.20B785,2013-10-24 11:07:00,
2013-10-24 07:08:00,37.1,34.4,30.02,WSW,249,0.0,1.0,90,0.00,,,0.00,0,WeatherCatV1.20B785,2013-10-24 11:08:00,
2013-10-24 07:09:00,37.0,34.3,30.02,WSW,249,0.0,1.0,90,0.00,,,0.00,0,WeatherCatV1.20B785,2013-10-24 11:09:00,
2013-10-24 07:10:00,37.0,34.3,30.02,WSW,249,0.0,0.0,90,0.00,,,0.00,0,WeatherCatV1.20B785,2013-10-24 11:10:00,
2013-10-24 07:11:00,37.0,34.3,30.02,WSW,249,1.0,1.0,90,0.00,,,0.00,0,WeatherCatV1.20B785,2013-10-24 11:11:00,
2013-10-24 07:13:00,36.9,34.2,30.02,WSW,249,1.0,2.0,90,0.00,,,0.00,0,WeatherCatV1.20B785,2013-10-24 11:13:00,
2013-10-24 07:14:00,36.8,34.2,30.02,WSW,249,0.0,1.0,90,0.00,,,0.00,0,WeatherCatV1.20B785,2013-10-24 11:14:00,
2013-10-24 07:15:00,36.8,34.2,30.02,WSW,249,0.0,0.0,90,0.00,,,0.00,0,WeatherCatV1.20B785,2013-10-24 11:15:00,
2013-10-24 07:16:00,36.7,34.0,30.02,WSW,249,1.0,1.0,90,0.00,,,0.00,0,WeatherCatV1.20B785,2013-10-24 11:16:00,
2013-10-24 07:18:00,36.6,34.0,30.02,WSW,249,0.0,1.0,90,0.00,,,0.00,0,WeatherCatV1.20B785,2013-10-24 11:18:00,
2013-10-24 07:19:00,36.6,34.0,30.02,WSW,249,1.0,1.0,90,0.00,,,0.00,0,WeatherCatV1.20B785,2013-10-24 11:19:00,
2013-10-24 07:20:00,36.6,34.0,30.02,WSW,249,0.0,0.0,90,0.00,,,0.00,0,WeatherCatV1.20B785,2013-10-24 11:20:00,
2013-10-24 07:21:00,36.5,33.8,30.02,WSW,249,0.0,0.0,90,0.00,,,0.00,0,WeatherCatV1.20B785,2013-10-24 11:21:00,
2013-10-24 07:22:00,36.5,33.8,30.02,WSW,249,1.0,1.0,90,0.00,,,0.00,0,WeatherCatV1.20B785,2013-10-24 11:22:00,
2013-10-24 07:24:00,36.4,33.8,30.02,WSW,249,0.0,2.0,90,0.00,,,0.00,0,WeatherCatV1.20B785,2013-10-24 11:24:00,
2013-10-24 07:25:00,36.3,33.7,30.02,WSW,249,0.0,1.0,90,0.00,,,0.00,0,WeatherCatV1.20B785,2013-10-24 11:25:00,
2013-10-24 07:26:00,36.3,33.7,30.02,WSW,253,1.0,2.0,90,0.00,,,0.00,0,WeatherCatV1.20B785,2013-10-24 11:26:00,
2013-10-24 07:28:00,36.1,33.5,30.02,WSW,253,0.0,2.0,90,0.00,,,0.00,0,WeatherCatV1.20B785,2013-10-24 11:28:00,
2013-10-24 07:29:00,36.1,33.5,30.02,WSW,253,1.0,1.0,90,0.00,,,0.00,0,WeatherCatV1.20B785,2013-10-24 11:29:00,
2013-10-24 07:30:00,35.9,33.3,30.02,West,271,1.0,2.0,90,0.00,,,0.00,0,WeatherCatV1.20B785,2013-10-24 11:30:00,
2013-10-24 07:31:00,35.7,33.1,30.02,West,271,0.0,2.0,90,0.00,,,0.00,0,WeatherCatV1.20B785,2013-10-24 11:31:00,
2013-10-24 07:33:00,35.6,33.0,30.02,West,271,0.0,0.0,90,0.00,,,0.00,0,WeatherCatV1.20B785,2013-10-24 11:33:00,
2013-10-24 07:35:00,35.4,32.8,30.02,WNW,296,2.0,2.0,90,0.00,,,0.00,5,WeatherCatV1.20B785,2013-10-24 11:35:00,
2013-10-24 07:36:00,35.3,32.7,30.02,WNW,291,1.0,3.0,90,0.00,,,0.00,5,WeatherCatV1.20B785,2013-10-24 11:36:00,
2013-10-24 07:37:00,35.2,32.6,30.02,West,267,0.0,2.0,90,0.00,,,0.00,5,WeatherCatV1.20B785,2013-10-24 11:37:00,
2013-10-24 07:38:00,35.1,32.5,30.02,West,267,1.0,2.0,90,0.00,,,0.00,5,WeatherCatV1.20B785,2013-10-24 11:38:00,
2013-10-24 07:40:00,35.0,32.4,30.03,West,267,2.0,3.0,90,0.00,,,0.00,7,WeatherCatV1.20B785,2013-10-24 11:40:00,
2013-10-24 07:41:00,35.0,32.4,30.03,West,271,1.0,3.0,90,0.00,,,0.00,7,WeatherCatV1.20B785,2013-10-24 11:41:00,
2013-10-24 07:42:00,34.9,32.3,30.02,WNW,299,2.0,3.0,90,0.00,,,0.00,7,WeatherCatV1.20B785,2013-10-24 11:42:00,
2013-10-24 07:44:00,34.8,32.2,30.03,West,261,0.0,1.0,90,0.00,,,0.00,9,WeatherCatV1.20B785,2013-10-24 11:44:00,
2013-10-24 07:45:00,34.8,32.2,30.03,West,261,1.0,2.0,90,0.00,,,0.00,9,WeatherCatV1.20B785,2013-10-24 11:45:00,
2013-10-24 07:46:00,34.8,32.2,30.03,West,261,1.0,2.0,90,0.00,,,0.00,9,WeatherCatV1.20B785,2013-10-24 11:46:00,
2013-10-24 07:47:00,34.8,32.2,30.03,West,261,1.0,2.0,90,0.00,,,0.00,11,WeatherCatV1.20B785,2013-10-24 11:47:00,
2013-10-24 07:48:00,34.8,32.2,30.03,West,261,0.0,2.0,90,0.00,,,0.00,11,WeatherCatV1.20B785,2013-10-24 11:48:00,
2013-10-24 07:49:00,34.8,32.2,30.03,West,260,0.0,1.0,90,0.00,,,0.00,12,WeatherCatV1.20B785,2013-10-24 11:49:00,
2013-10-24 07:50:00,34.8,32.2,30.03,West,260,1.0,2.0,90,0.00,,,0.00,12,WeatherCatV1.20B785,2013-10-24 11:50:00,
2013-10-24 07:51:00,34.8,32.2,30.03,West,260,0.0,2.0,90,0.00,,,0.00,14,WeatherCatV1.20B785,2013-10-24 11:51:00,
2013-10-24 07:52:00,34.8,32.2,30.03,WSW,258,1.0,2.0,90,0.00,,,0.00,14,WeatherCatV1.20B785,2013-10-24 11:52:00,
2013-10-24 07:53:00,34.9,32.3,30.03,WSW,256,1.0,2.0,90,0.00,,,0.00,16,WeatherCatV1.20B785,2013-10-24 11:53:00,
2013-10-24 07:55:00,35.0,32.1,30.03,WSW,256,0.0,2.0,89,0.00,,,0.00,18,WeatherCatV1.20B785,2013-10-24 11:55:00,
2013-10-24 07:56:00,35.0,32.4,30.03,WSW,255,0.0,2.0,90,0.00,,,0.00,18,WeatherCatV1.20B785,2013-10-24 11:56:00,
2013-10-24 07:57:00,35.1,32.5,30.03,WSW,255,1.0,1.0,90,0.00,,,0.00,19,WeatherCatV1.20B785,2013-10-24 11:57:00,
2013-10-24 07:58:00,35.1,32.5,30.03,WSW,255,0.0,2.0,90,0.00,,,0.00,21,WeatherCatV1.20B785,2013-10-24 11:58:00,
2013-10-24 08:01:00,35.1,32.5,30.03,WSW,254,1.0,2.0,90,0.00,,,0.00,30,WeatherCatV1.20B785,2013-10-24 12:01:00,
2013-10-24 08:03:00,35.1,32.5,30.03,WSW,258,1.0,1.0,90,0.00,,,0.00,33,WeatherCatV1.20B785,2013-10-24 12:03:00,
2013-10-24 08:06:00,35.1,32.5,30.03,WSW,258,0.0,1.0,90,0.00,,,0.00,42,WeatherCatV1.20B785,2013-10-24 12:06:00,
2013-10-24 08:07:00,35.2,32.6,30.03,WSW,258,0.0,1.0,90,0.00,,,0.00,42,WeatherCatV1.20B785,2013-10-24 12:07:00,
2013-10-24 08:08:00,35.2,32.6,30.03,WSW,258,0.0,1.0,90,0.00,,,0.00,40,WeatherCatV1.20B785,2013-10-24 12:08:00,
2013-10-24 08:09:00,35.4,32.5,30.03,WSW,258,1.0,2.0,89,0.00,,,0.00,46,WeatherCatV1.20B785,2013-10-24 12:09:00,
2013-10-24 08:11:00,35.5,32.6,30.03,WSW,258,0.0,2.0,89,0.00,,,0.00,49,WeatherCatV1.20B785,2013-10-24 12:11:00,
2013-10-24 08:12:00,35.6,32.7,30.03,WSW,258,0.0,1.0,89,0.00,,,0.00,54,WeatherCatV1.20B785,2013-10-24 12:12:00,
2013-10-24 08:13:00,35.6,32.7,30.03,WSW,258,1.0,1.0,89,0.00,,,0.00,56,WeatherCatV1.20B785,2013-10-24 12:13:00,
2013-10-24 08:16:00,36.0,33.1,30.03,West,260,1.0,3.0,89,0.00,,,0.00,56,WeatherCatV1.20B785,2013-10-24 12:16:00,
2013-10-24 08:18:00,36.1,33.2,30.03,West,260,0.0,1.0,89,0.00,,,0.00,58,WeatherCatV1.20B785,2013-10-24 12:18:00,
2013-10-24 08:20:00,36.4,33.5,30.03,WSW,250,1.0,2.0,89,0.00,,,0.00,60,WeatherCatV1.20B785,2013-10-24 12:20:00,
2013-10-24 08:21:00,36.6,33.7,30.03,WSW,250,1.0,2.0,89,0.00,,,0.00,56,WeatherCatV1.20B785,2013-10-24 12:21:00,
2013-10-24 08:22:00,36.6,33.7,30.03,WSW,250,2.0,2.0,89,0.00,,,0.00,54,WeatherCatV1.20B785,2013-10-24 12:22:00,
2013-10-24 08:23:00,36.7,33.8,30.03,WSW,250,0.0,2.0,89,0.00,,,0.00,54,WeatherCatV1.20B785,2013-10-24 12:23:00,
2013-10-24 08:26:00,36.8,33.9,30.03,WSW,252,1.0,1.0,89,0.00,,,0.00,54,WeatherCatV1.20B785,2013-10-24 12:26:00,
2013-10-24 08:27:00,36.9,34.2,30.03,WSW,254,1.0,2.0,90,0.00,,,0.00,54,WeatherCatV1.20B785,2013-10-24 12:27:00,
2013-10-24 08:28:00,37.0,34.3,30.03,WSW,252,0.0,1.0,90,0.00,,,0.00,53,WeatherCatV1.20B785,2013-10-24 12:28:00,
2013-10-24 08:30:00,37.2,34.5,30.03,WSW,252,0.0,2.0,90,0.00,,,0.00,49,WeatherCatV1.20B785,2013-10-24 12:30:00,
2013-10-24 08:31:00,37.3,34.6,30.03,WSW,252,0.0,2.0,90,0.00,,,0.00,46,WeatherCatV1.20B785,2013-10-24 12:31:00,
2013-10-24 08:32:00,37.4,34.7,30.04,WSW,252,0.0,1.0,90,0.00,,,0.00,44,WeatherCatV1.20B785,2013-10-24 12:32:00,
2013-10-24 08:33:00,37.4,34.7,30.03,WSW,252,0.0,1.0,90,0.00,,,0.00,42,WeatherCatV1.20B785,2013-10-24 12:33:00,
2013-10-24 08:34:00,37.4,34.7,30.03,WSW,252,1.0,1.0,90,0.00,,,0.00,40,WeatherCatV1.20B785,2013-10-24 12:34:00,
2013-10-24 08:35:00,37.7,35.0,30.04,WSW,252,1.0,2.0,90,0.00,,,0.00,37,WeatherCatV1.20B785,2013-10-24 12:35:00,
2013-10-24 08:37:00,37.9,35.2,30.04,WSW,252,0.0,1.0,90,0.00,,,0.00,33,WeatherCatV1.20B785,2013-10-24 12:37:00,
2013-10-24 08:38:00,37.9,35.2,30.04,WSW,252,1.0,1.0,90,0.00,,,0.00,33,WeatherCatV1.20B785,2013-10-24 12:38:00,
2013-10-24 08:39:00,38.0,35.0,30.04,WSW,252,1.0,2.0,89,0.00,,,0.00,33,WeatherCatV1.20B785,2013-10-24 12:39:00,
2013-10-24 08:40:00,38.1,35.4,30.04,WSW,252,1.0,2.0,90,0.00,,,0.00,33,WeatherCatV1.20B785,2013-10-24 12:40:00,
2013-10-24 08:41:00,38.2,35.5,30.04,WSW,248,0.0,2.0,90,0.00,,,0.00,33,WeatherCatV1.20B785,2013-10-24 12:41:00,
2013-10-24 08:42:00,38.3,35.6,30.04,WSW,248,0.0,1.0,90,0.00,,,0.00,35,WeatherCatV1.20B785,2013-10-24 12:42:00,
2013-10-24 08:44:00,38.3,35.3,30.04,WSW,248,0.0,0.0,89,0.00,,,0.00,35,WeatherCatV1.20B785,2013-10-24 12:44:00,
2013-10-24 08:45:00,38.4,35.5,30.04,WSW,249,1.0,1.0,89,0.00,,,0.00,35,WeatherCatV1.20B785,2013-10-24 12:45:00,
2013-10-24 08:47:00,38.5,35.3,30.04,SW,225,0.0,1.0,88,0.00,,,0.00,35,WeatherCatV1.20B785,2013-10-24 12:47:00,
2013-10-24 08:48:00,38.6,35.4,30.04,SW,225,0.0,1.0,88,0.00,,,0.00,35,WeatherCatV1.20B785,2013-10-24 12:48:00,
2013-10-24 08:49:00,38.7,35.5,30.04,SW,228,1.0,2.0,88,0.00,,,0.00,39,WeatherCatV1.20B785,2013-10-24 12:49:00,
2013-10-24 08:50:00,38.7,35.5,30.04,SW,228,0.0,2.0,88,0.00,,,0.00,39,WeatherCatV1.20B785,2013-10-24 12:50:00,
2013-10-24 08:52:00,38.9,35.4,30.04,SW,228,0.0,1.0,87,0.00,,,0.00,37,WeatherCatV1.20B785,2013-10-24 12:52:00,
2013-10-24 08:53:00,38.9,35.4,30.04,SW,229,1.0,2.0,87,0.00,,,0.00,33,WeatherCatV1.20B785,2013-10-24 12:53:00,
2013-10-24 08:54:00,38.9,35.4,30.04,SW,232,1.0,2.0,87,0.00,,,0.00,33,WeatherCatV1.20B785,2013-10-24 12:54:00,
2013-10-24 08:55:00,39.0,35.5,30.05,SW,233,2.0,2.0,87,0.00,,,0.00,30,WeatherCatV1.20B785,2013-10-24 12:55:00,
2013-10-24 08:56:00,39.0,35.5,30.05,SW,236,1.0,2.0,87,0.00,,,0.00,30,WeatherCatV1.20B785,2013-10-24 12:56:00,
2013-10-24 08:58:00,39.1,36.1,30.05,WSW,250,1.0,2.0,89,0.00,,,0.00,30,WeatherCatV1.20B785,2013-10-24 12:58:00,
2013-10-24 08:59:00,39.2,36.0,30.05,WSW,250,0.0,2.0,88,0.00,,,0.00,30,WeatherCatV1.20B785,2013-10-24 12:59:00,
2013-10-24 09:00:00,39.2,36.0,30.05,WSW,250,2.0,2.0,88,0.00,,,0.00,32,WeatherCatV1.20B785,2013-10-24 13:00:00,
2013-10-24 09:02:00,39.3,35.8,30.05,WSW,250,0.0,1.0,87,0.00,,,0.00,35,WeatherCatV1.20B785,2013-10-24 13:02:00,
2013-10-24 09:06:00,39.3,35.2,30.05,WSW,250,0.0,0.0,85,0.00,,,0.00,40,WeatherCatV1.20B785,2013-10-24 13:06:00,
2013-10-24 09:08:00,39.5,35.4,30.05,WSW,256,2.0,3.0,85,0.00,,,0.00,42,WeatherCatV1.20B785,2013-10-24 13:08:00,
2013-10-24 09:11:00,39.5,35.4,30.05,WSW,256,1.0,1.0,85,0.00,,,0.00,42,WeatherCatV1.20B785,2013-10-24 13:11:00,
2013-10-24 09:13:00,39.6,35.5,30.05,WSW,256,0.0,1.0,85,0.00,,,0.00,35,WeatherCatV1.20B785,2013-10-24 13:13:00,
2013-10-24 09:14:00,39.6,35.8,30.05,WSW,240,1.0,1.0,86,0.00,,,0.00,33,WeatherCatV1.20B785,2013-10-24 13:14:00,
2013-10-24 09:15:00,39.6,35.8,30.05,WSW,240,0.0,1.0,86,0.00,,,0.00,33,WeatherCatV1.20B785,2013-10-24 13:15:00,
2013-10-24 09:16:00,39.7,35.9,30.05,WSW,241,0.0,1.0,86,0.00,,,0.00,35,WeatherCatV1.20B785,2013-10-24 13:16:00,
2013-10-24 09:18:00,39.7,35.6,30.05,WSW,241,1.0,1.0,85,0.00,,,0.00,35,WeatherCatV1.20B785,2013-10-24 13:18:00,
2013-10-24 09:20:00,39.8,35.4,30.05,WSW,252,1.0,2.0,84,0.00,,,0.00,30,WeatherCatV1.20B785,2013-10-24 13:20:00,
2013-10-24 09:22:00,39.8,35.4,30.05,WSW,252,0.0,2.0,84,0.00,,,0.00,28,WeatherCatV1.20B785,2013-10-24 13:22:00,
2013-10-24 09:23:00,39.8,35.4,30.05,WSW,252,0.0,1.0,84,0.00,,,0.00,30,WeatherCatV1.20B785,2013-10-24 13:23:00,
2013-10-24 09:25:00,39.8,35.4,30.05,WSW,252,0.0,1.0,84,0.00,,,0.00,35,WeatherCatV1.20B785,2013-10-24 13:25:00,
2013-10-24 09:26:00,39.9,35.5,30.05,WSW,254,2.0,2.0,84,0.00,,,0.00,51,WeatherCatV1.20B785,2013-10-24 13:26:00,
2013-10-24 09:27:00,39.9,36.1,30.06,WNW,286,2.0,2.0,86,0.00,,,0.00,58,WeatherCatV1.20B785,2013-10-24 13:27:00,
2013-10-24 09:28:00,40.0,36.2,30.06,WNW,285,1.0,2.0,86,0.00,,,0.00,62,WeatherCatV1.20B785,2013-10-24 13:28:00,
2013-10-24 09:31:00,40.1,36.5,30.06,WNW,286,1.0,2.0,87,0.00,,,0.00,86,WeatherCatV1.20B785,2013-10-24 13:31:00,
2013-10-24 09:32:00,40.1,36.0,30.05,West,259,0.0,3.0,85,0.00,,,0.00,93,WeatherCatV1.20B785,2013-10-24 13:32:00,
2013-10-24 09:33:00,40.1,36.0,30.05,SW,229,1.0,3.0,85,0.00,,,0.00,98,WeatherCatV1.20B785,2013-10-24 13:33:00,
2013-10-24 09:34:00,40.1,36.0,30.05,West,272,2.0,4.0,85,0.00,,,0.00,104,WeatherCatV1.20B785,2013-10-24 13:34:00,
2013-10-24 09:36:00,40.2,36.1,30.05,WSW,254,4.0,8.0,85,0.00,,,0.00,149,WeatherCatV1.20B785,2013-10-24 13:36:00,
2013-10-24 09:37:00,40.3,35.5,30.05,WNW,297,3.0,8.0,83,0.00,,,0.00,162,WeatherCatV1.20B785,2013-10-24 13:37:00,
2013-10-24 09:41:00,40.4,35.7,30.05,West,268,1.0,4.0,83,0.00,,,0.00,90,WeatherCatV1.20B785,2013-10-24 13:41:00,
2013-10-24 09:42:00,40.4,35.7,30.05,West,268,1.0,4.0,83,0.00,,,0.00,90,WeatherCatV1.20B785,2013-10-24 13:42:00,
2013-10-24 09:43:00,40.4,35.7,30.05,West,280,4.0,4.0,83,0.00,,,0.00,67,WeatherCatV1.20B785,2013-10-24 13:43:00,
2013-10-24 09:49:00,40.4,35.7,30.05,West,266,1.0,1.0,83,0.00,,,0.00,53,WeatherCatV1.20B785,2013-10-24 13:49:00,
2013-10-24 09:50:00,40.4,35.7,30.05,West,266,2.0,2.0,83,0.00,,,0.00,69,WeatherCatV1.20B785,2013-10-24 13:50:00,
2013-10-24 09:51:00,40.4,35.7,30.05,West,273,3.0,3.0,83,0.00,,,0.00,90,WeatherCatV1.20B785,2013-10-24 13:51:00,
2013-10-24 09:55:00,40.5,36.0,30.06,West,281,3.0,5.0,84,0.00,,,0.00,125,WeatherCatV1.20B785,2013-10-24 13:55:00,
2013-10-24 09:56:00,40.5,36.0,30.06,WSW,246,2.0,3.0,84,0.00,,,0.00,128,WeatherCatV1.20B785,2013-10-24 13:56:00,
2013-10-24 09:57:00,40.5,36.0,30.06,West,259,3.0,5.0,84,0.00,,,0.00,116,WeatherCatV1.20B785,2013-10-24 13:57:00,
2013-10-24 10:00:00,40.6,36.2,30.06,West,268,1.0,3.0,84,0.00,,,0.00,121,WeatherCatV1.20B785,2013-10-24 14:00:00,
2013-10-24 10:01:00,40.6,36.2,30.06,SW,233,5.0,5.0,84,0.00,,,0.00,125,WeatherCatV1.20B785,2013-10-24 14:01:00,
2013-10-24 10:02:00,40.6,35.8,30.06,WNW,282,2.0,5.0,83,0.00,,,0.00,155,WeatherCatV1.20B785,2013-10-24 14:02:00,
2013-10-24 10:05:00,40.7,36.0,30.06,WSW,256,2.0,4.0,83,0.00,,,0.00,172,WeatherCatV1.20B785,2013-10-24 14:05:00,
2013-10-24 10:06:00,40.7,36.0,30.06,WSW,258,2.0,3.0,83,0.00,,,0.00,172,WeatherCatV1.20B785,2013-10-24 14:06:00,
2013-10-24 10:08:00,40.7,35.6,30.06,West,269,3.0,4.0,82,0.00,,,0.00,105,WeatherCatV1.20B785,2013-10-24 14:08:00,
2013-10-24 10:10:00,40.8,36.0,30.06,West,260,0.0,3.0,83,0.00,,,0.00,91,WeatherCatV1.20B785,2013-10-24 14:10:00,
2013-10-24 10:11:00,40.8,35.7,30.06,West,260,2.0,3.0,82,0.00,,,0.00,102,WeatherCatV1.20B785,2013-10-24 14:11:00,
2013-10-24 10:12:00,40.9,35.8,30.06,West,260,1.0,3.0,82,0.00,,,0.00,97,WeatherCatV1.20B785,2013-10-24 14:12:00,
2013-10-24 10:13:00,40.9,35.8,30.06,WSW,239,2.0,2.0,82,0.00,,,0.00,98,WeatherCatV1.20B785,2013-10-24 14:13:00,
2013-10-24 10:16:00,41.0,35.6,30.05,West,274,3.0,4.0,81,0.00,,,0.00,128,WeatherCatV1.20B785,2013-10-24 14:16:00,
2013-10-24 10:17:00,41.1,36.0,30.05,West,264,5.0,6.0,82,0.00,,,0.00,121,WeatherCatV1.20B785,2013-10-24 14:17:00,
2013-10-24 10:18:00,41.1,35.7,30.06,WSW,254,3.0,6.0,81,0.00,,,0.00,125,WeatherCatV1.20B785,2013-10-24 14:18:00,
2013-10-24 10:21:00,41.4,35.7,30.06,WSW,253,3.0,3.0,80,0.00,,,0.00,199,WeatherCatV1.20B785,2013-10-24 14:21:00,
2013-10-24 10:22:00,41.4,35.7,30.06,WSW,254,5.0,6.0,80,0.00,,,0.00,199,WeatherCatV1.20B785,2013-10-24 14:22:00,
2013-10-24 10:24:00,41.6,35.9,30.06,West,271,4.0,6.0,80,0.00,,,0.00,221,WeatherCatV1.20B785,2013-10-24 14:24:00,
2013-10-24 10:26:00,41.9,36.5,30.06,WNW,292,2.0,6.0,81,0.00,,,0.00,181,WeatherCatV1.20B785,2013-10-24 14:26:00,
2013-10-24 10:27:00,42.1,36.4,30.06,SW,223,2.0,4.0,80,0.00,,,0.00,156,WeatherCatV1.20B785,2013-10-24 14:27:00,
2013-10-24 10:28:00,42.2,36.2,30.06,WNW,296,3.0,4.0,79,0.00,,,0.00,134,WeatherCatV1.20B785,2013-10-24 14:28:00,
2013-10-24 10:29:00,42.2,36.2,30.06,WNW,288,6.0,6.0,79,0.00,,,0.00,134,WeatherCatV1.20B785,2013-10-24 14:29:00,
2013-10-24 10:32:00,42.4,36.4,30.06,SW,234,2.0,7.0,79,0.00,,,0.00,114,WeatherCatV1.20B785,2013-10-24 14:32:00,
2013-10-24 10:34:00,42.6,36.2,30.06,West,277,1.0,3.0,78,0.00,,,0.00,137,WeatherCatV1.20B785,2013-10-24 14:34:00,
2013-10-24 10:35:00,42.6,36.5,30.06,West,279,1.0,3.0,79,0.00,,,0.00,151,WeatherCatV1.20B785,2013-10-24 14:35:00,
2013-10-24 10:37:00,42.9,36.5,30.06,WNW,288,1.0,5.0,78,0.00,,,0.00,195,WeatherCatV1.20B785,2013-10-24 14:37:00,
2013-10-24 10:38:00,42.9,36.5,30.06,WNW,288,2.0,5.0,78,0.00,,,0.00,195,WeatherCatV1.20B785,2013-10-24 14:38:00,
2013-10-24 10:39:00,43.2,37.5,30.06,West,274,4.0,4.0,80,0.00,,,0.00,225,WeatherCatV1.20B785,2013-10-24 14:39:00,
2013-10-24 10:40:00,43.4,37.3,30.06,WNW,292,3.0,6.0,79,0.00,,,0.00,276,WeatherCatV1.20B785,2013-10-24 14:40:00,
2013-10-24 10:43:00,43.9,36.8,30.06,WSW,237,2.0,7.0,76,0.00,,,0.00,211,WeatherCatV1.20B785,2013-10-24 14:43:00,
2013-10-24 10:44:00,44.0,36.2,30.06,WNW,298,2.0,7.0,74,0.00,,,0.00,211,WeatherCatV1.20B785,2013-10-24 14:44:00,
2013-10-24 10:45:00,44.1,36.7,30.06,NW,305,2.0,4.0,75,0.00,,,0.00,359,WeatherCatV1.20B785,2013-10-24 14:45:00,
2013-10-24 10:46:00,44.2,37.1,30.06,WSW,244,4.0,8.0,76,0.00,,,0.00,287,WeatherCatV1.20B785,2013-10-24 14:46:00,
2013-10-24 10:49:00,44.5,36.4,30.06,West,281,3.0,4.0,73,0.00,,,0.00,329,WeatherCatV1.20B785,2013-10-24 14:49:00,
2013-10-24 10:50:00,44.6,36.8,30.06,WNW,296,8.0,8.0,74,0.00,,,0.00,329,WeatherCatV1.20B785,2013-10-24 14:50:00,
2013-10-24 10:51:00,44.7,36.6,30.06,WNW,284,3.0,8.0,73,0.00,,,0.00,329,WeatherCatV1.20B785,2013-10-24 14:51:00,
2013-10-24 10:55:00,44.9,35.4,30.05,WSW,240,4.0,7.0,69,0.00,,,0.00,144,WeatherCatV1.20B785,2013-10-24 14:55:00,
2013-10-24 10:56:00,44.9,35.0,30.05,WNW,298,4.0,7.0,68,0.00,,,0.00,121,WeatherCatV1.20B785,2013-10-24 14:56:00,
2013-10-24 10:57:00,44.8,35.3,30.05,NNW,341,3.0,6.0,69,0.00,,,0.00,107,WeatherCatV1.20B785,2013-10-24 14:57:00,
2013-10-24 11:01:00,44.5,34.6,30.05,WSW,258,4.0,6.0,68,0.00,,,0.00,105,WeatherCatV1.20B785,2013-10-24 15:01:00,
2013-10-24 11:03:00,44.4,34.5,30.05,SW,234,1.0,1.0,68,0.00,,,0.00,88,WeatherCatV1.20B785,2013-10-24 15:03:00,
2013-10-24 11:06:00,44.2,34.3,30.05,WSW,239,5.0,10.0,68,0.00,,,0.00,102,WeatherCatV1.20B785,2013-10-24 15:06:00,
2013-10-24 11:08:00,44.2,34.3,30.05,WNW,291,0.0,2.0,68,0.00,,,0.00,100,WeatherCatV1.20B785,2013-10-24 15:08:00,
2013-10-24 11:09:00,44.2,35.0,30.05,WNW,282,6.0,6.0,70,0.00,,,0.00,116,WeatherCatV1.20B785,2013-10-24 15:09:00,
2013-10-24 11:11:00,44.2,34.7,30.05,NNW,341,4.0,6.0,69,0.00,,,0.00,121,WeatherCatV1.20B785,2013-10-24 15:11:00,
2013-10-24 11:12:00,44.2,34.7,30.05,WNW,289,3.0,4.0,69,0.00,,,0.00,107,WeatherCatV1.20B785,2013-10-24 15:12:00,
2013-10-24 11:13:00,44.3,34.4,30.06,WNW,300,1.0,4.0,68,0.00,,,0.00,95,WeatherCatV1.20B785,2013-10-24 15:13:00,
2013-10-24 11:14:00,44.3,34.4,30.06,WNW,300,1.0,2.0,68,0.00,,,0.00,95,WeatherCatV1.20B785,2013-10-24 15:14:00,
2013-10-24 11:15:00,44.3,34.4,30.05,West,264,4.0,4.0,68,0.00,,,0.00,105,WeatherCatV1.20B785,2013-10-24 15:15:00,
2013-10-24 11:16:00,44.3,34.4,30.05,West,266,2.0,4.0,68,0.00,,,0.00,104,WeatherCatV1.20B785,2013-10-24 15:16:00,
2013-10-24 11:18:00,44.3,34.4,30.05,WNW,293,3.0,4.0,68,0.00,,,0.00,74,WeatherCatV1.20B785,2013-10-24 15:18:00,
2013-10-24 11:19:00,44.3,34.4,30.06,NW,305,6.0,6.0,68,0.00,,,0.00,72,WeatherCatV1.20B785,2013-10-24 15:19:00,
2013-10-24 11:20:00,44.3,34.4,30.06,NW,315,2.0,6.0,68,0.00,,,0.00,77,WeatherCatV1.20B785,2013-10-24 15:20:00,
2013-10-24 11:24:00,44.3,35.1,30.06,East,87,0.0,2.0,70,0.00,,,0.00,183,WeatherCatV1.20B785,2013-10-24 15:24:00,
2013-10-24 11:25:00,44.3,34.8,30.06,WNW,282,4.0,4.0,69,0.00,,,0.00,211,WeatherCatV1.20B785,2013-10-24 15:25:00,
2013-10-24 11:29:00,44.6,34.3,30.05,WNW,291,5.0,5.0,67,0.00,,,0.00,237,WeatherCatV1.20B785,2013-10-24 15:29:00,
2013-10-24 11:30:00,44.7,33.3,30.05,WNW,297,4.0,7.0,64,0.00,,,0.00,229,WeatherCatV1.20B785,2013-10-24 15:30:00,
2013-10-24 11:32:00,44.9,33.5,30.06,WNW,288,1.0,7.0,64,0.00,,,0.00,199,WeatherCatV1.20B785,2013-10-24 15:32:00,
2013-10-24 11:34:00,45.1,33.7,30.05,WNW,302,6.0,6.0,64,0.00,,,0.00,162,WeatherCatV1.20B785,2013-10-24 15:34:00,
2013-10-24 11:35:00,45.1,33.3,30.05,WNW,295,0.0,6.0,63,0.00,,,0.00,158,WeatherCatV1.20B785,2013-10-24 15:35:00,
2013-10-24 11:36:00,45.2,33.4,30.05,West,269,4.0,5.0,63,0.00,,,0.00,156,WeatherCatV1.20B785,2013-10-24 15:36:00,
2013-10-24 11:37:00,45.2,33.0,30.06,WNW,289,4.0,5.0,62,0.00,,,0.00,183,WeatherCatV1.20B785,2013-10-24 15:37:00,
2013-10-24 11:40:00,45.3,32.7,30.06,NW,308,4.0,5.0,61,0.00,,,0.00,151,WeatherCatV1.20B785,2013-10-24 15:40:00,
2013-10-24 11:41:00,45.3,32.7,30.06,NW,312,6.0,6.0,61,0.00,,,0.00,127,WeatherCatV1.20B785,2013-10-24 15:41:00,
2013-10-24 11:42:00,45.2,33.4,30.06,NNW,327,4.0,5.0,63,0.00,,,0.00,100,WeatherCatV1.20B785,2013-10-24 15:42:00,
2013-10-24 11:45:00,45.0,34.3,30.06,NW,320,1.0,7.0,66,0.00,,,0.00,98,WeatherCatV1.20B785,2013-10-24 15:45:00,
2013-10-24 11:46:00,44.9,34.2,30.06,WNW,298,3.0,7.0,66,0.00,,,0.00,102,WeatherCatV1.20B785,2013-10-24 15:46:00,
2013-10-24 11:48:00,44.5,35.0,30.06,NW,316,4.0,8.0,69,0.00,,,0.00,100,WeatherCatV1.20B785,2013-10-24 15:48:00,
2013-10-24 11:50:00,44.1,34.6,30.06,WNW,285,2.0,6.0,69,0.00,,,0.00,83,WeatherCatV1.20B785,2013-10-24 15:50:00,
2013-10-24 11:51:00,44.0,34.8,30.06,WNW,293,3.0,4.0,70,0.00,,,0.00,81,WeatherCatV1.20B785,2013-10-24 15:51:00,
2013-10-24 11:52:00,43.9,34.8,30.06,North,352,2.0,4.0,70,0.00,,,0.00,77,WeatherCatV1.20B785,2013-10-24 15:52:00,
2013-10-24 11:55:00,43.5,34.7,30.06,WNW,293,3.0,5.0,71,0.00,,,0.00,69,WeatherCatV1.20B785,2013-10-24 15:55:00,
2013-10-24 11:56:00,43.4,35.0,30.07,NW,307,4.0,6.0,72,0.00,,,0.00,69,WeatherCatV1.20B785,2013-10-24 15:56:00,
2013-10-24 11:57:00,43.4,35.0,30.07,WNW,292,1.0,6.0,72,0.00,,,0.00,69,WeatherCatV1.20B785,2013-10-24 15:57:00,
2013-10-24 12:01:00,42.9,34.8,30.07,WNW,283,4.0,6.0,73,0.00,,,0.00,116,WeatherCatV1.20B785,2013-10-24 16:01:00,
2013-10-24 12:02:00,42.8,34.8,30.06,NW,323,2.0,4.0,73,0.00,,,0.00,128,WeatherCatV1.20B785,2013-10-24 16:02:00,
2013-10-24 12:03:00,42.7,34.7,30.07,NNW,332,2.0,2.0,73,0.00,,,0.00,146,WeatherCatV1.20B785,2013-10-24 16:03:00,
2013-10-24 12:06:00,42.6,34.9,30.06,WNW,302,3.0,6.0,74,0.00,,,0.00,148,WeatherCatV1.20B785,2013-10-24 16:06:00,
2013-10-24 12:07:00,42.6,34.6,30.06,NW,310,4.0,6.0,73,0.00,,,0.00,146,WeatherCatV1.20B785,2013-10-24 16:07:00,
2013-10-24 12:08:00,42.6,34.6,30.06,WNW,293,2.0,6.0,73,0.00,,,0.00,146,WeatherCatV1.20B785,2013-10-24 16:08:00,
2013-10-24 12:11:00,42.5,35.1,30.06,NW,314,1.0,2.0,75,0.00,,,0.00,167,WeatherCatV1.20B785,2013-10-24 16:11:00,
2013-10-24 12:12:00,42.6,34.9,30.06,NW,315,4.0,4.0,74,0.00,,,0.00,171,WeatherCatV1.20B785,2013-10-24 16:12:00,
2013-10-24 12:13:00,42.6,34.9,30.06,WNW,292,0.0,4.0,74,0.00,,,0.00,176,WeatherCatV1.20B785,2013-10-24 16:13:00,
2013-10-24 12:16:00,42.8,35.1,30.06,WNW,300,2.0,5.0,74,0.00,,,0.00,190,WeatherCatV1.20B785,2013-10-24 16:16:00,
2013-10-24 12:17:00,42.9,35.2,30.06,WNW,298,2.0,4.0,74,0.00,,,0.00,200,WeatherCatV1.20B785,2013-10-24 16:17:00,
2013-10-24 12:18:00,42.9,35.2,30.06,WNW,298,1.0,4.0,74,0.00,,,0.00,200,WeatherCatV1.20B785,2013-10-24 16:18:00,
2013-10-24 12:21:00,43.2,34.8,30.06,WNW,284,2.0,5.0,72,0.00,,,0.00,232,WeatherCatV1.20B785,2013-10-24 16:21:00,
2013-10-24 12:22:00,43.3,34.9,30.06,West,264,2.0,5.0,72,0.00,,,0.00,236,WeatherCatV1.20B785,2013-10-24 16:22:00,
2013-10-24 12:23:00,43.4,34.6,30.06,SW,231,3.0,4.0,71,0.00,,,0.00,225,WeatherCatV1.20B785,2013-10-24 16:23:00,
2013-10-24 12:26:00,43.8,34.3,30.06,West,271,1.0,4.0,69,0.00,,,0.00,227,WeatherCatV1.20B785,2013-10-24 16:26:00,
2013-10-24 12:27:00,43.8,34.3,30.06,West,261,1.0,3.0,69,0.00,,,0.00,230,WeatherCatV1.20B785,2013-10-24 16:27:00,
2013-10-24 12:28:00,44.0,34.8,30.06,WSW,248,1.0,2.0,70,0.00,,,0.00,236,WeatherCatV1.20B785,2013-10-24 16:28:00,
2013-10-24 12:29:00,44.1,35.0,30.06,West,264,2.0,4.0,70,0.00,,,0.00,243,WeatherCatV1.20B785,2013-10-24 16:29:00,
2013-10-24 12:31:00,44.3,35.1,30.05,West,261,2.0,3.0,70,0.00,,,0.00,246,WeatherCatV1.20B785,2013-10-24 16:31:00,
2013-10-24 12:32:00,44.5,35.3,30.05,WSW,240,5.0,5.0,70,0.00,,,0.00,246,WeatherCatV1.20B785,2013-10-24 16:32:00,
2013-10-24 12:34:00,44.7,34.4,30.05,WSW,254,4.0,5.0,67,0.00,,,0.00,227,WeatherCatV1.20B785,2013-10-24 16:34:00,
2013-10-24 12:36:00,45.0,33.6,30.05,West,276,5.0,9.0,64,0.00,,,0.00,225,WeatherCatV1.20B785,2013-10-24 16:36:00,
2013-10-24 12:37:00,45.0,33.6,30.05,SW,227,2.0,7.0,64,0.00,,,0.00,211,WeatherCatV1.20B785,2013-10-24 16:37:00,
2013-10-24 12:41:00,45.2,34.1,30.05,West,276,7.0,7.0,65,0.00,,,0.00,229,WeatherCatV1.20B785,2013-10-24 16:41:00,
2013-10-24 12:42:00,45.2,33.8,30.05,West,262,4.0,9.0,64,0.00,,,0.00,216,WeatherCatV1.20B785,2013-10-24 16:42:00,
2013-10-24 12:43:00,45.2,33.4,30.05,WSW,250,1.0,9.0,63,0.00,,,0.00,223,WeatherCatV1.20B785,2013-10-24 16:43:00,
2013-10-24 12:46:00,45.4,33.5,30.05,SSW,204,2.0,5.0,63,0.00,,,0.00,687,WeatherCatV1.20B785,2013-10-24 16:46:00,
2013-10-24 12:47:00,45.4,33.5,30.05,WSW,244,5.0,9.0,63,0.00,,,0.00,773,WeatherCatV1.20B785,2013-10-24 16:47:00,
2013-10-24 12:48:00,45.5,34.0,30.05,West,260,5.0,9.0,64,0.00,,,0.00,773,WeatherCatV1.20B785,2013-10-24 16:48:00,
2013-10-24 12:51:00,45.9,34.0,30.05,West,277,3.0,3.0,63,0.00,,,0.00,274,WeatherCatV1.20B785,2013-10-24 16:51:00,
2013-10-24 12:52:00,45.9,34.0,30.05,WNW,288,3.0,3.0,63,0.00,,,0.00,353,WeatherCatV1.20B785,2013-10-24 16:52:00,
2013-10-24 12:53:00,46.0,34.5,30.05,WSW,247,2.0,5.0,64,0.00,,,0.00,353,WeatherCatV1.20B785,2013-10-24 16:53:00,
2013-10-24 12:57:00,46.1,33.0,30.05,West,277,3.0,7.0,60,0.00,,,0.00,95,WeatherCatV1.20B785,2013-10-24 16:57:00,
2013-10-24 12:58:00,46.0,33.3,30.05,WSW,240,4.0,7.0,61,0.00,,,0.00,84,WeatherCatV1.20B785,2013-10-24 16:58:00,
2013-10-24 12:59:00,46.0,33.3,30.05,WSW,247,2.0,5.0,61,0.00,,,0.00,72,WeatherCatV1.20B785,2013-10-24 16:59:00,
2013-10-24 13:02:00,45.8,32.7,30.05,WSW,250,3.0,8.0,60,0.00,,,0.00,44,WeatherCatV1.20B785,2013-10-24 17:02:00,
2013-10-24 13:04:00,45.5,32.8,30.05,WNW,293,3.0,3.0,61,0.00,,,0.00,44,WeatherCatV1.20B785,2013-10-24 17:04:00,
2013-10-24 13:07:00,45.2,33.0,30.05,NNW,330,2.0,6.0,62,0.00,,,0.00,63,WeatherCatV1.20B785,2013-10-24 17:07:00,
2013-10-24 13:08:00,45.1,33.3,30.05,WNW,291,2.0,6.0,63,0.00,,,0.00,76,WeatherCatV1.20B785,2013-10-24 17:08:00,
2013-10-24 13:09:00,45.0,33.2,30.05,NW,304,3.0,3.0,63,0.00,,,0.00,83,WeatherCatV1.20B785,2013-10-24 17:09:00,
2013-10-24 13:10:00,44.9,33.1,30.06,North,352,2.0,7.0,63,0.00,,,0.00,86,WeatherCatV1.20B785,2013-10-24 17:10:00,
2013-10-24 13:12:00,44.7,34.0,30.06,NNW,348,3.0,6.0,66,0.00,,,0.00,98,WeatherCatV1.20B785,2013-10-24 17:12:00,
2013-10-24 13:14:00,44.5,34.2,30.06,NW,323,5.0,10.0,67,0.00,,,0.00,148,WeatherCatV1.20B785,2013-10-24 17:14:00,
2013-10-24 13:15:00,44.2,34.7,30.06,NNW,340,5.0,7.0,69,0.00,,,0.00,167,WeatherCatV1.20B785,2013-10-24 17:15:00,
2013-10-24 13:17:00,44.0,34.8,30.06,NW,325,4.0,8.0,70,0.00,,,0.00,181,WeatherCatV1.20B785,2013-10-24 17:17:00,
2013-10-24 13:18:00,43.9,34.8,30.06,WNW,298,4.0,6.0,70,0.00,,,0.00,179,WeatherCatV1.20B785,2013-10-24 17:18:00,
2013-10-24 13:19:00,43.8,34.7,30.06,NW,314,2.0,5.0,70,0.00,,,0.00,178,WeatherCatV1.20B785,2013-10-24 17:19:00,
2013-10-24 13:20:00,43.7,34.9,30.06,WNW,291,3.0,5.0,71,0.00,,,0.00,176,WeatherCatV1.20B785,2013-10-24 17:20:00,
2013-10-24 13:22:00,43.4,35.0,30.06,NW,319,5.0,7.0,72,0.00,,,0.00,171,WeatherCatV1.20B785,2013-10-24 17:22:00,
2013-10-24 13:24:00,43.3,34.9,30.06,WNW,283,3.0,7.0,72,0.00,,,0.00,156,WeatherCatV1.20B785,2013-10-24 17:24:00,
2013-10-24 13:25:00,43.2,34.8,30.06,WSW,245,2.0,3.0,72,0.00,,,0.00,141,WeatherCatV1.20B785,2013-10-24 17:25:00,
2013-10-24 13:26:00,43.2,34.8,30.05,West,276,2.0,3.0,72,0.00,,,0.00,128,WeatherCatV1.20B785,2013-10-24 17:26:00,
2013-10-24 13:28:00,43.0,35.0,30.05,West,268,3.0,4.0,73,0.00,,,0.00,128,WeatherCatV1.20B785,2013-10-24 17:28:00,
2013-10-24 13:30:00,42.9,34.8,30.05,West,269,0.0,4.0,73,0.00,,,0.00,132,WeatherCatV1.20B785,2013-10-24 17:30:00,
2013-10-24 13:31:00,42.8,34.8,30.05,WNW,297,1.0,2.0,73,0.00,,,0.00,141,WeatherCatV1.20B785,2013-10-24 17:31:00,
2013-10-24 13:32:00,42.8,34.8,30.05,West,277,1.0,2.0,73,0.00,,,0.00,146,WeatherCatV1.20B785,2013-10-24 17:32:00,
2013-10-24 13:33:00,42.8,34.8,30.05,WNW,286,5.0,5.0,73,0.00,,,0.00,146,WeatherCatV1.20B785,2013-10-24 17:33:00,
2013-10-24 13:35:00,42.8,34.8,30.05,WNW,297,3.0,4.0,73,0.00,,,0.00,158,WeatherCatV1.20B785,2013-10-24 17:35:00,
2013-10-24 13:36:00,42.8,34.8,30.05,WSW,252,2.0,4.0,73,0.00,,,0.00,167,WeatherCatV1.20B785,2013-10-24 17:36:00,
2013-10-24 13:39:00,42.9,34.2,30.05,WNW,287,2.0,4.0,71,0.00,,,0.00,179,WeatherCatV1.20B785,2013-10-24 17:39:00,
2013-10-24 13:41:00,43.0,34.2,30.05,West,273,1.0,3.0,71,0.00,,,0.00,183,WeatherCatV1.20B785,2013-10-24 17:41:00,
2013-10-24 13:42:00,43.1,34.3,30.05,WSW,250,4.0,4.0,71,0.00,,,0.00,181,WeatherCatV1.20B785,2013-10-24 17:42:00,
2013-10-24 13:44:00,43.2,33.7,30.05,WSW,258,2.0,5.0,69,0.00,,,0.00,172,WeatherCatV1.20B785,2013-10-24 17:44:00,
2013-10-24 13:46:00,43.3,33.5,30.05,WNW,287,2.0,8.0,68,0.00,,,0.00,183,WeatherCatV1.20B785,2013-10-24 17:46:00,
2013-10-24 13:47:00,43.5,34.0,30.05,WSW,254,2.0,4.0,69,0.00,,,0.00,209,WeatherCatV1.20B785,2013-10-24 17:47:00,
2013-10-24 13:49:00,43.6,33.8,30.05,WSW,251,5.0,5.0,68,0.00,,,0.00,246,WeatherCatV1.20B785,2013-10-24 17:49:00,
2013-10-24 13:50:00,43.7,33.8,30.05,West,266,5.0,5.0,68,0.00,,,0.00,272,WeatherCatV1.20B785,2013-10-24 17:50:00,
2013-10-24 13:51:00,43.8,33.6,30.05,West,276,3.0,7.0,67,0.00,,,0.00,304,WeatherCatV1.20B785,2013-10-24 17:51:00,
2013-10-24 13:53:00,44.1,34.2,30.05,WSW,254,6.0,8.0,68,0.00,,,0.00,287,WeatherCatV1.20B785,2013-10-24 17:53:00,
2013-10-24 13:54:00,44.2,33.6,30.05,WSW,256,3.0,8.0,66,0.00,,,0.00,290,WeatherCatV1.20B785,2013-10-24 17:54:00,
2013-10-24 13:55:00,44.3,33.7,30.05,WNW,293,3.0,6.0,66,0.00,,,0.00,292,WeatherCatV1.20B785,2013-10-24 17:55:00,
2013-10-24 13:56:00,44.6,34.3,30.05,WNW,291,3.0,7.0,67,0.00,,,0.00,283,WeatherCatV1.20B785,2013-10-24 17:56:00,
2013-10-24 13:57:00,44.6,34.3,30.05,WNW,298,3.0,7.0,67,0.00,,,0.00,278,WeatherCatV1.20B785,2013-10-24 17:57:00,
2013-10-24 13:58:00,44.9,34.2,30.05,WNW,283,5.0,5.0,66,0.00,,,0.00,262,WeatherCatV1.20B785,2013-10-24 17:58:00,
2013-10-24 14:00:00,45.1,34.0,30.05,WSW,246,4.0,7.0,65,0.00,,,0.00,251,WeatherCatV1.20B785,2013-10-24 18:00:00,
2013-10-24 14:01:00,45.2,33.8,30.05,WSW,245,3.0,7.0,64,0.00,,,0.00,243,WeatherCatV1.20B785,2013-10-24 18:01:00,
2013-10-24 14:02:00,45.1,33.3,30.05,WSW,254,4.0,5.0,63,0.00,,,0.00,258,WeatherCatV1.20B785,2013-10-24 18:02:00,
2013-10-24 14:05:00,45.3,34.2,30.05,West,277,4.0,8.0,65,0.00,,,0.00,369,WeatherCatV1.20B785,2013-10-24 18:05:00,
2013-10-24 14:06:00,45.4,33.9,30.05,West,276,2.0,8.0,64,0.00,,,0.00,274,WeatherCatV1.20B785,2013-10-24 18:06:00,
2013-10-24 14:07:00,45.6,34.9,30.05,West,273,2.0,8.0,66,0.00,,,0.00,274,WeatherCatV1.20B785,2013-10-24 18:07:00,
2013-10-24 14:10:00,46.1,34.2,30.04,West,264,3.0,5.0,63,0.00,,,0.00,234,WeatherCatV1.20B785,2013-10-24 18:10:00,
2013-10-24 14:11:00,46.2,33.9,30.04,SW,232,2.0,5.0,62,0.00,,,0.00,234,WeatherCatV1.20B785,2013-10-24 18:11:00,
2013-10-24 14:12:00,46.3,33.2,30.04,West,262,1.0,4.0,60,0.00,,,0.00,225,WeatherCatV1.20B785,2013-10-24 18:12:00,
2013-10-24 14:15:00,46.5,34.2,30.04,West,273,1.0,4.0,62,0.00,,,0.00,348,WeatherCatV1.20B785,2013-10-24 18:15:00,
2013-10-24 14:16:00,46.5,33.8,30.04,WSW,249,3.0,3.0,61,0.00,,,0.00,348,WeatherCatV1.20B785,2013-10-24 18:16:00,
2013-10-24 14:17:00,46.6,33.5,30.04,WSW,252,3.0,4.0,60,0.00,,,0.00,348,WeatherCatV1.20B785,2013-10-24 18:17:00,
2013-10-24 14:21:00,46.8,33.7,30.04,West,262,2.0,6.0,60,0.00,,,0.00,251,WeatherCatV1.20B785,2013-10-24 18:21:00,
2013-10-24 14:22:00,46.8,33.2,30.04,NW,313,4.0,6.0,59,0.00,,,0.00,181,WeatherCatV1.20B785,2013-10-24 18:22:00,
2013-10-24 14:23:00,46.8,32.4,30.04,WNW,286,6.0,6.0,57,0.00,,,0.00,181,WeatherCatV1.20B785,2013-10-24 18:23:00,
2013-10-24 14:26:00,46.7,32.3,30.04,WSW,250,2.0,5.0,57,0.00,,,0.00,178,WeatherCatV1.20B785,2013-10-24 18:26:00,
2013-10-24 14:27:00,46.7,32.7,30.04,West,279,5.0,6.0,58,0.00,,,0.00,202,WeatherCatV1.20B785,2013-10-24 18:27:00,
2013-10-24 14:28:00,46.7,32.3,30.04,SW,219,2.0,7.0,57,0.00,,,0.00,202,WeatherCatV1.20B785,2013-10-24 18:28:00,
2013-10-24 14:31:00,46.5,32.5,30.04,NNW,348,5.0,10.0,58,0.00,,,0.00,394,WeatherCatV1.20B785,2013-10-24 18:31:00,
2013-10-24 14:33:00,46.5,32.1,30.04,WSW,252,6.0,10.0,57,0.00,,,0.00,394,WeatherCatV1.20B785,2013-10-24 18:33:00,
2013-10-24 14:35:00,46.7,32.7,30.04,West,260,1.0,6.0,58,0.00,,,0.00,624,WeatherCatV1.20B785,2013-10-24 18:35:00,
2013-10-24 14:36:00,46.9,32.5,30.04,WNW,283,6.0,7.0,57,0.00,,,0.00,624,WeatherCatV1.20B785,2013-10-24 18:36:00,
2013-10-24 14:38:00,47.1,33.1,30.04,West,260,8.0,8.0,58,0.00,,,0.00,526,WeatherCatV1.20B785,2013-10-24 18:38:00,
2013-10-24 14:39:00,47.3,32.4,30.04,WNW,295,6.0,9.0,56,0.00,,,0.00,483,WeatherCatV1.20B785,2013-10-24 18:39:00,
2013-10-24 14:40:00,47.4,32.0,30.04,WSW,252,4.0,7.0,55,0.00,,,0.00,251,WeatherCatV1.20B785,2013-10-24 18:40:00,
2013-10-24 14:42:00,47.5,32.6,30.04,WSW,256,1.0,4.0,56,0.00,,,0.00,199,WeatherCatV1.20B785,2013-10-24 18:42:00,
2013-10-24 14:43:00,47.5,32.2,30.04,West,273,4.0,5.0,55,0.00,,,0.00,167,WeatherCatV1.20B785,2013-10-24 18:43:00,
2013-10-24 14:44:00,47.5,32.2,30.04,NW,325,1.0,5.0,55,0.00,,,0.00,153,WeatherCatV1.20B785,2013-10-24 18:44:00,
2013-10-24 14:46:00,47.4,31.1,30.04,NNE,31,3.0,12.0,53,0.00,,,0.00,244,WeatherCatV1.20B785,2013-10-24 18:46:00,
2013-10-24 14:48:00,47.1,30.4,30.04,NW,318,3.0,10.0,52,0.00,,,0.00,185,WeatherCatV1.20B785,2013-10-24 18:48:00,
2013-10-24 14:49:00,47.0,29.8,30.04,West,281,3.0,7.0,51,0.00,,,0.00,279,WeatherCatV1.20B785,2013-10-24 18:49:00,
2013-10-24 14:51:00,46.9,30.7,30.04,West,281,3.0,7.0,53,0.00,,,0.00,204,WeatherCatV1.20B785,2013-10-24 18:51:00,
2013-10-24 14:53:00,46.9,30.7,30.04,NW,326,4.0,7.0,53,0.00,,,0.00,265,WeatherCatV1.20B785,2013-10-24 18:53:00,
2013-10-24 14:54:00,46.9,31.6,30.04,WNW,283,5.0,6.0,55,0.00,,,0.00,207,WeatherCatV1.20B785,2013-10-24 18:54:00,
2013-10-24 14:55:00,47.0,31.2,30.04,WNW,293,4.0,7.0,54,0.00,,,0.00,262,WeatherCatV1.20B785,2013-10-24 18:55:00,
2013-10-24 14:56:00,47.0,30.8,30.04,SW,233,3.0,6.0,53,0.00,,,0.00,176,WeatherCatV1.20B785,2013-10-24 18:56:00,
2013-10-24 14:58:00,47.0,30.8,30.04,WNW,300,1.0,6.0,53,0.00,,,0.00,199,WeatherCatV1.20B785,2013-10-24 18:58:00,
2013-10-24 14:59:00,47.0,30.8,30.04,North,349,0.0,2.0,53,0.00,,,0.00,142,WeatherCatV1.20B785,2013-10-24 18:59:00,
2013-10-24 15:00:00,47.1,30.9,30.04,NW,318,0.0,2.0,53,0.00,,,0.00,142,WeatherCatV1.20B785,2013-10-24 19:00:00,
2013-10-24 15:02:00,47.2,31.4,30.04,WNW,294,4.0,4.0,54,0.00,,,0.00,142,WeatherCatV1.20B785,2013-10-24 19:02:00,
2013-10-24 15:03:00,47.2,31.4,30.04,West,275,1.0,4.0,54,0.00,,,0.00,149,WeatherCatV1.20B785,2013-10-24 19:03:00,
2013-10-24 15:04:00,47.2,31.0,30.04,West,268,7.0,7.0,53,0.00,,,0.00,142,WeatherCatV1.20B785,2013-10-24 19:04:00,
2013-10-24 15:06:00,47.2,30.0,30.04,SSW,206,4.0,8.0,51,0.00,,,0.00,165,WeatherCatV1.20B785,2013-10-24 19:06:00,
2013-10-24 15:10:00,47.1,30.4,30.04,SW,229,2.0,4.0,52,0.00,,,0.00,253,WeatherCatV1.20B785,2013-10-24 19:10:00,
2013-10-24 15:11:00,47.1,30.4,30.04,WSW,248,3.0,4.0,52,0.00,,,0.00,255,WeatherCatV1.20B785,2013-10-24 19:11:00,
2013-10-24 15:12:00,47.1,30.4,30.04,WSW,254,1.0,4.0,52,0.00,,,0.00,241,WeatherCatV1.20B785,2013-10-24 19:12:00,
2013-10-24 15:15:00,47.3,30.6,30.05,WNW,297,4.0,4.0,52,0.00,,,0.00,202,WeatherCatV1.20B785,2013-10-24 19:15:00,
2013-10-24 15:16:00,47.3,31.0,30.04,South,184,4.0,9.0,53,0.00,,,0.00,202,WeatherCatV1.20B785,2013-10-24 19:16:00,
2013-10-24 15:17:00,47.4,30.7,30.05,NW,316,9.0,13.0,52,0.00,,,0.00,195,WeatherCatV1.20B785,2013-10-24 19:17:00,
2013-10-24 15:20:00,47.4,31.6,30.05,WNW,296,4.0,12.0,54,0.00,,,0.00,186,WeatherCatV1.20B785,2013-10-24 19:20:00,
2013-10-24 15:21:00,47.4,30.7,30.05,WNW,291,5.0,12.0,52,0.00,,,0.00,185,WeatherCatV1.20B785,2013-10-24 19:21:00,
2013-10-24 15:22:00,47.4,31.1,30.05,WSW,252,7.0,10.0,53,0.00,,,0.00,185,WeatherCatV1.20B785,2013-10-24 19:22:00,
2013-10-24 15:25:00,47.0,31.2,30.06,WNW,289,11.0,18.0,54,0.00,,,0.00,165,WeatherCatV1.20B785,2013-10-24 19:25:00,
2013-10-24 15:26:00,46.9,32.0,30.06,WNW,285,9.0,18.0,56,0.00,,,0.00,156,WeatherCatV1.20B785,2013-10-24 19:26:00,
2013-10-24 15:27:00,46.4,32.0,30.06,West,277,5.0,11.0,57,0.00,,,0.00,148,WeatherCatV1.20B785,2013-10-24 19:27:00,
2013-10-24 15:28:00,46.4,32.4,30.06,WSW,252,9.0,14.0,58,0.00,,,0.00,148,WeatherCatV1.20B785,2013-10-24 19:28:00,
2013-10-24 15:30:00,45.7,33.0,30.07,West,271,7.0,18.0,61,0.00,,,0.00,141,WeatherCatV1.20B785,2013-10-24 19:30:00,
2013-10-24 15:31:00,45.4,33.2,30.07,SW,235,6.0,12.0,62,0.00,,,0.00,151,WeatherCatV1.20B785,2013-10-24 19:31:00,
2013-10-24 15:32:00,45.2,33.4,30.07,West,259,8.0,9.0,63,0.00,,,0.00,195,WeatherCatV1.20B785,2013-10-24 19:32:00,
2013-10-24 15:33:00,45.0,34.0,30.07,WNW,293,9.0,13.0,65,0.00,,,0.00,269,WeatherCatV1.20B785,2013-10-24 19:33:00,
2013-10-24 15:34:00,44.9,33.5,30.07,West,269,8.0,13.0,64,0.00,,,0.00,269,WeatherCatV1.20B785,2013-10-24 19:34:00,
2013-10-24 15:36:00,44.5,34.2,30.07,West,276,3.0,12.0,67,0.00,,,0.00,320,WeatherCatV1.20B785,2013-10-24 19:36:00,
2013-10-24 15:37:00,44.3,34.0,30.06,SSW,212,2.0,9.0,67,0.00,,,0.00,285,WeatherCatV1.20B785,2013-10-24 19:37:00,
2013-10-24 15:38:00,44.2,34.3,30.06,West,264,2.0,6.0,68,0.00,,,0.00,236,WeatherCatV1.20B785,2013-10-24 19:38:00,
2013-10-24 15:39:00,44.2,34.7,30.06,SW,231,4.0,6.0,69,0.00,,,0.00,236,WeatherCatV1.20B785,2013-10-24 19:39:00,
2013-10-24 15:41:00,44.2,35.0,30.06,West,273,6.0,6.0,70,0.00,,,0.00,86,WeatherCatV1.20B785,2013-10-24 19:41:00,
2013-10-24 15:42:00,44.3,33.3,30.06,WSW,256,3.0,10.0,65,0.00,,,0.00,86,WeatherCatV1.20B785,2013-10-24 19:42:00,
2013-10-24 15:43:00,44.3,33.3,30.06,West,279,4.0,10.0,65,0.00,,,0.00,246,WeatherCatV1.20B785,2013-10-24 19:43:00,
2013-10-24 15:45:00,44.5,33.5,30.06,WSW,250,3.0,5.0,65,0.00,,,0.00,257,WeatherCatV1.20B785,2013-10-24 19:45:00,
2013-10-24 15:46:00,44.7,34.4,30.06,NW,314,3.0,3.0,67,0.00,,,0.00,297,WeatherCatV1.20B785,2013-10-24 19:46:00,
2013-10-24 15:47:00,44.7,34.4,30.06,WNW,289,7.0,7.0,67,0.00,,,0.00,302,WeatherCatV1.20B785,2013-10-24 19:47:00,
2013-10-24 15:48:00,44.9,33.1,30.05,West,280,8.0,8.0,63,0.00,,,0.00,237,WeatherCatV1.20B785,2013-10-24 19:48:00,
2013-10-24 15:50:00,45.1,32.5,30.05,WSW,258,5.0,6.0,61,0.00,,,0.00,332,WeatherCatV1.20B785,2013-10-24 19:50:00,
2013-10-24 15:51:00,45.3,33.1,30.05,WSW,252,2.0,6.0,62,0.00,,,0.00,417,WeatherCatV1.20B785,2013-10-24 19:51:00,
2013-10-24 15:52:00,45.3,33.1,30.05,WSW,253,2.0,6.0,62,0.00,,,0.00,318,WeatherCatV1.20B785,2013-10-24 19:52:00,
2013-10-24 15:53:00,45.5,32.8,30.05,WNW,297,5.0,5.0,61,0.00,,,0.00,404,WeatherCatV1.20B785,2013-10-24 19:53:00,
2013-10-24 15:54:00,45.6,32.9,30.05,WNW,300,4.0,7.0,61,0.00,,,0.00,387,WeatherCatV1.20B785,2013-10-24 19:54:00,
2013-10-24 15:55:00,45.7,32.6,30.05,WNW,288,7.0,8.0,60,0.00,,,0.00,360,WeatherCatV1.20B785,2013-10-24 19:55:00,
2013-10-24 15:57:00,45.8,32.7,30.06,WSW,247,5.0,8.0,60,0.00,,,0.00,404,WeatherCatV1.20B785,2013-10-24 19:57:00,
2013-10-24 15:58:00,45.9,33.6,30.06,NW,306,6.0,8.0,62,0.00,,,0.00,350,WeatherCatV1.20B785,2013-10-24 19:58:00,
2013-10-24 16:00:00,46.0,33.3,30.06,West,273,2.0,9.0,61,0.00,,,0.00,218,WeatherCatV1.20B785,2013-10-24 20:00:00,
2013-10-24 16:01:00,46.1,33.4,30.06,WNW,285,3.0,9.0,61,0.00,,,0.00,200,WeatherCatV1.20B785,2013-10-24 20:01:00,
2013-10-24 16:02:00,46.2,33.9,30.06,WNW,283,2.0,5.0,62,0.00,,,0.00,190,WeatherCatV1.20B785,2013-10-24 20:02:00,
2013-10-24 16:03:00,46.3,33.6,30.06,West,270,6.0,6.0,61,0.00,,,0.00,100,WeatherCatV1.20B785,2013-10-24 20:03:00,
2013-10-24 16:04:00,46.3,33.2,30.06,West,261,3.0,6.0,60,0.00,,,0.00,281,WeatherCatV1.20B785,2013-10-24 20:04:00,
2013-10-24 16:05:00,46.3,33.2,30.06,WNW,298,3.0,6.0,60,0.00,,,0.00,308,WeatherCatV1.20B785,2013-10-24 20:05:00,
2013-10-24 16:06:00,46.3,33.2,30.06,WNW,284,7.0,9.0,60,0.00,,,0.00,339,WeatherCatV1.20B785,2013-10-24 20:06:00,
2013-10-24 16:07:00,46.3,33.2,30.06,West,276,3.0,9.0,60,0.00,,,0.00,299,WeatherCatV1.20B785,2013-10-24 20:07:00,
2013-10-24 16:08:00,46.4,33.3,30.06,West,275,4.0,7.0,60,0.00,,,0.00,169,WeatherCatV1.20B785,2013-10-24 20:08:00,
2013-10-24 16:09:00,46.4,32.9,30.06,West,265,6.0,11.0,59,0.00,,,0.00,169,WeatherCatV1.20B785,2013-10-24 20:09:00,
2013-10-24 16:10:00,46.4,32.9,30.06,West,275,1.0,11.0,59,0.00,,,0.00,169,WeatherCatV1.20B785,2013-10-24 20:10:00,
2013-10-24 16:11:00,46.4,32.9,30.06,WNW,283,4.0,8.0,59,0.00,,,0.00,360,WeatherCatV1.20B785,2013-10-24 20:11:00,
2013-10-24 16:12:00,46.4,32.4,30.06,West,278,9.0,12.0,58,0.00,,,0.00,362,WeatherCatV1.20B785,2013-10-24 20:12:00,
2013-10-24 16:13:00,46.5,32.1,30.06,WNW,297,5.0,12.0,57,0.00,,,0.00,362,WeatherCatV1.20B785,2013-10-24 20:13:00,
2013-10-24 16:14:00,46.5,32.1,30.06,South,178,6.0,8.0,57,0.00,,,0.00,357,WeatherCatV1.20B785,2013-10-24 20:14:00,
2013-10-24 16:15:00,46.5,32.1,30.06,WNW,284,4.0,6.0,57,0.00,,,0.00,362,WeatherCatV1.20B785,2013-10-24 20:15:00,
2013-10-24 16:16:00,46.7,31.9,30.06,NW,309,4.0,8.0,56,0.00,,,0.00,360,WeatherCatV1.20B785,2013-10-24 20:16:00,
2013-10-24 16:17:00,46.7,31.9,30.06,NW,308,5.0,8.0,56,0.00,,,0.00,353,WeatherCatV1.20B785,2013-10-24 20:17:00,
2013-10-24 16:19:00,46.7,31.9,30.06,WNW,282,3.0,4.0,56,0.00,,,0.00,341,WeatherCatV1.20B785,2013-10-24 20:19:00,
2013-10-24 16:20:00,46.8,32.4,30.06,WNW,283,6.0,8.0,57,0.00,,,0.00,325,WeatherCatV1.20B785,2013-10-24 20:20:00,
2013-10-24 16:22:00,46.8,31.9,30.06,West,275,7.0,12.0,56,0.00,,,0.00,130,WeatherCatV1.20B785,2013-10-24 20:22:00,
2013-10-24 16:24:00,46.7,31.9,30.06,WNW,285,4.0,8.0,56,0.00,,,0.00,162,WeatherCatV1.20B785,2013-10-24 20:24:00,
2013-10-24 16:25:00,46.7,32.3,30.06,WNW,285,7.0,7.0,57,0.00,,,0.00,76,WeatherCatV1.20B785,2013-10-24 20:25:00,
2013-10-24 16:26:00,46.6,32.2,30.06,West,269,4.0,7.0,57,0.00,,,0.00,139,WeatherCatV1.20B785,2013-10-24 20:26:00,
2013-10-24 16:27:00,46.6,32.6,30.06,West,263,4.0,5.0,58,0.00,,,0.00,202,WeatherCatV1.20B785,2013-10-24 20:27:00,
2013-10-24 16:28:00,46.6,32.6,30.06,West,263,3.0,5.0,58,0.00,,,0.00,202,WeatherCatV1.20B785,2013-10-24 20:28:00,
2013-10-24 16:29:00,46.6,32.2,30.06,West,264,6.0,6.0,57,0.00,,,0.00,169,WeatherCatV1.20B785,2013-10-24 20:29:00,
2013-10-24 16:31:00,46.7,32.3,30.06,West,269,5.0,7.0,57,0.00,,,0.00,148,WeatherCatV1.20B785,2013-10-24 20:31:00,
2013-10-24 16:33:00,46.8,32.4,30.06,West,269,2.0,9.0,57,0.00,,,0.00,128,WeatherCatV1.20B785,2013-10-24 20:33:00,
2013-10-24 16:35:00,46.9,32.5,30.07,WNW,298,5.0,8.0,57,0.00,,,0.00,148,WeatherCatV1.20B785,2013-10-24 20:35:00,
2013-10-24 16:36:00,46.8,33.7,30.07,WNW,302,7.0,11.0,60,0.00,,,0.00,153,WeatherCatV1.20B785,2013-10-24 20:36:00,
2013-10-24 16:37:00,46.7,34.8,30.07,NW,312,9.0,11.0,63,0.00,,,0.00,153,WeatherCatV1.20B785,2013-10-24 20:37:00,
2013-10-24 16:38:00,46.3,34.4,30.07,WNW,291,10.0,15.0,63,0.00,,,0.00,139,WeatherCatV1.20B785,2013-10-24 20:38:00,
2013-10-24 16:39:00,45.9,35.2,30.07,West,269,7.0,15.0,66,0.00,,,0.00,165,WeatherCatV1.20B785,2013-10-24 20:39:00,
2013-10-24 16:40:00,45.7,35.0,30.07,West,263,6.0,13.0,66,0.00,,,0.00,185,WeatherCatV1.20B785,2013-10-24 20:40:00,
2013-10-24 16:41:00,45.3,35.0,30.07,WNW,285,7.0,11.0,67,0.00,,,0.00,230,WeatherCatV1.20B785,2013-10-24 20:41:00,
2013-10-24 16:42:00,45.1,35.2,30.07,NNW,335,2.0,11.0,68,0.00,,,0.00,193,WeatherCatV1.20B785,2013-10-24 20:42:00,
2013-10-24 16:43:00,45.1,36.3,30.07,West,271,4.0,11.0,71,0.00,,,0.00,193,WeatherCatV1.20B785,2013-10-24 20:43:00,
2013-10-24 16:45:00,44.5,35.7,30.07,West,278,4.0,10.0,71,0.00,,,0.00,137,WeatherCatV1.20B785,2013-10-24 20:45:00,
2013-10-24 16:47:00,44.1,35.3,30.07,WNW,300,2.0,3.0,71,0.00,,,0.00,98,WeatherCatV1.20B785,2013-10-24 20:47:00,
2013-10-24 16:48:00,43.9,35.8,30.07,NW,308,5.0,7.0,73,0.00,,,0.00,76,WeatherCatV1.20B785,2013-10-24 20:48:00,
2013-10-24 16:50:00,43.6,35.5,30.07,NW,306,6.0,6.0,73,0.00,,,0.00,70,WeatherCatV1.20B785,2013-10-24 20:50:00,
2013-10-24 16:51:00,43.5,35.4,30.07,WNW,289,5.0,6.0,73,0.00,,,0.00,70,WeatherCatV1.20B785,2013-10-24 20:51:00,
2013-10-24 16:52:00,43.2,35.5,30.07,WNW,285,2.0,5.0,74,0.00,,,0.00,79,WeatherCatV1.20B785,2013-10-24 20:52:00,
2013-10-24 16:53:00,43.2,35.1,30.07,NW,317,2.0,3.0,73,0.00,,,0.00,90,WeatherCatV1.20B785,2013-10-24 20:53:00,
2013-10-24 16:56:00,43.0,35.0,30.06,West,267,2.0,3.0,73,0.00,,,0.00,123,WeatherCatV1.20B785,2013-10-24 20:56:00,
2013-10-24 16:57:00,42.9,35.5,30.06,WSW,250,2.0,4.0,75,0.00,,,0.00,100,WeatherCatV1.20B785,2013-10-24 20:57:00,
2013-10-24 16:58:00,42.9,35.2,30.06,WNW,302,5.0,6.0,74,0.00,,,0.00,88,WeatherCatV1.20B785,2013-10-24 20:58:00,
2013-10-24 16:59:00,42.9,35.2,30.06,NW,306,4.0,6.0,74,0.00,,,0.00,88,WeatherCatV1.20B785,2013-10-24 20:59:00,
2013-10-24 17:01:00,42.8,34.8,30.06,WNW,298,2.0,3.0,73,0.00,,,0.00,47,WeatherCatV1.20B785,2013-10-24 21:01:00,
2013-10-24 17:02:00,42.9,34.5,30.06,WSW,256,3.0,4.0,72,0.00,,,0.00,39,WeatherCatV1.20B785,2013-10-24 21:02:00,
2013-10-24 17:04:00,42.8,34.1,30.06,WNW,300,5.0,6.0,71,0.00,,,0.00,35,WeatherCatV1.20B785,2013-10-24 21:04:00,
2013-10-24 17:06:00,42.9,34.5,30.06,NW,313,7.0,7.0,72,0.00,,,0.00,42,WeatherCatV1.20B785,2013-10-24 21:06:00,
2013-10-24 17:07:00,42.8,34.4,30.06,West,265,3.0,8.0,72,0.00,,,0.00,49,WeatherCatV1.20B785,2013-10-24 21:07:00,
2013-10-24 17:08:00,42.8,34.1,30.06,WNW,300,4.0,8.0,71,0.00,,,0.00,49,WeatherCatV1.20B785,2013-10-24 21:08:00,
2013-10-24 17:09:00,42.9,33.4,30.07,WSW,248,2.0,9.0,69,0.00,,,0.00,35,WeatherCatV1.20B785,2013-10-24 21:09:00,
2013-10-24 17:11:00,42.9,33.4,30.06,WNW,298,2.0,9.0,69,0.00,,,0.00,42,WeatherCatV1.20B785,2013-10-24 21:11:00,
2013-10-24 17:12:00,42.9,33.8,30.06,NW,306,2.0,4.0,70,0.00,,,0.00,39,WeatherCatV1.20B785,2013-10-24 21:12:00,
2013-10-24 17:13:00,42.9,33.8,30.06,West,272,1.0,4.0,70,0.00,,,0.00,46,WeatherCatV1.20B785,2013-10-24 21:13:00,
2013-10-24 17:15:00,43.0,33.9,30.06,WNW,295,3.0,4.0,70,0.00,,,0.00,67,WeatherCatV1.20B785,2013-10-24 21:15:00,
2013-10-24 17:16:00,42.9,33.8,30.06,WNW,300,1.0,4.0,70,0.00,,,0.00,70,WeatherCatV1.20B785,2013-10-24 21:16:00,
2013-10-24 17:17:00,42.9,33.8,30.06,West,264,3.0,4.0,70,0.00,,,0.00,53,WeatherCatV1.20B785,2013-10-24 21:17:00,
2013-10-24 17:18:00,43.0,33.9,30.06,WNW,299,6.0,6.0,70,0.00,,,0.00,42,WeatherCatV1.20B785,2013-10-24 21:18:00,
2013-10-24 17:20:00,43.0,33.5,30.06,West,273,2.0,8.0,69,0.00,,,0.00,37,WeatherCatV1.20B785,2013-10-24 21:20:00,
2013-10-24 17:21:00,43.0,33.5,30.06,WSW,248,4.0,4.0,69,0.00,,,0.00,35,WeatherCatV1.20B785,2013-10-24 21:21:00,
2013-10-24 17:23:00,43.0,33.2,30.06,West,270,1.0,5.0,68,0.00,,,0.00,32,WeatherCatV1.20B785,2013-10-24 21:23:00,
2013-10-24 17:24:00,43.0,33.5,30.06,WNW,283,1.0,2.0,69,0.00,,,0.00,28,WeatherCatV1.20B785,2013-10-24 21:24:00,
2013-10-24 17:25:00,43.0,33.5,30.06,WNW,293,3.0,3.0,69,0.00,,,0.00,28,WeatherCatV1.20B785,2013-10-24 21:25:00,
2013-10-24 17:26:00,43.0,33.2,30.06,West,271,1.0,4.0,68,0.00,,,0.00,28,WeatherCatV1.20B785,2013-10-24 21:26:00,
2013-10-24 17:28:00,43.0,33.5,30.06,WNW,287,2.0,2.0,69,0.00,,,0.00,30,WeatherCatV1.20B785,2013-10-24 21:28:00,
2013-10-24 17:30:00,43.0,33.5,30.06,WNW,302,2.0,5.0,69,0.00,,,0.00,28,WeatherCatV1.20B785,2013-10-24 21:30:00,
2013-10-24 17:31:00,43.1,33.6,30.06,WSW,252,2.0,6.0,69,0.00,,,0.00,28,WeatherCatV1.20B785,2013-10-24 21:31:00,
2013-10-24 17:32:00,43.0,33.5,30.06,West,268,2.0,6.0,69,0.00,,,0.00,28,WeatherCatV1.20B785,2013-10-24 21:32:00,
2013-10-24 17:33:00,43.1,33.6,30.07,West,266,2.0,3.0,69,0.00,,,0.00,26,WeatherCatV1.20B785,2013-10-24 21:33:00,
2013-10-24 17:35:00,43.0,33.5,30.07,WSW,249,3.0,4.0,69,0.00,,,0.00,28,WeatherCatV1.20B785,2013-10-24 21:35:00,
2013-10-24 17:37:00,43.1,33.3,30.07,West,268,2.0,4.0,68,0.00,,,0.00,28,WeatherCatV1.20B785,2013-10-24 21:37:00,
2013-10-24 17:38:00,43.1,33.3,30.07,WSW,256,2.0,3.0,68,0.00,,,0.00,26,WeatherCatV1.20B785,2013-10-24 21:38:00,
2013-10-24 17:39:00,43.1,33.6,30.07,WNW,288,2.0,3.0,69,0.00,,,0.00,25,WeatherCatV1.20B785,2013-10-24 21:39:00,
2013-10-24 17:40:00,43.0,33.2,30.07,WNW,296,0.0,3.0,68,0.00,,,0.00,23,WeatherCatV1.20B785,2013-10-24 21:40:00,
2013-10-24 17:41:00,43.0,33.5,30.07,West,281,0.0,2.0,69,0.00,,,0.00,23,WeatherCatV1.20B785,2013-10-24 21:41:00,
2013-10-24 17:42:00,43.0,33.9,30.07,WSW,252,3.0,4.0,70,0.00,,,0.00,19,WeatherCatV1.20B785,2013-10-24 21:42:00,
2013-10-24 17:43:00,43.0,33.5,30.07,West,266,1.0,4.0,69,0.00,,,0.00,19,WeatherCatV1.20B785,2013-10-24 21:43:00,
2013-10-24 17:44:00,43.0,33.5,30.07,West,266,1.0,2.0,69,0.00,,,0.00,18,WeatherCatV1.20B785,2013-10-24 21:44:00,
2013-10-24 17:45:00,42.9,33.4,30.07,WNW,290,2.0,4.0,69,0.00,,,0.00,16,WeatherCatV1.20B785,2013-10-24 21:45:00,
2013-10-24 17:46:00,42.9,33.4,30.07,WSW,250,2.0,4.0,69,0.00,,,0.00,16,WeatherCatV1.20B785,2013-10-24 21:46:00,
2013-10-24 17:47:00,42.9,33.1,30.07,West,274,1.0,3.0,68,0.00,,,0.00,16,WeatherCatV1.20B785,2013-10-24 21:47:00,
2013-10-24 17:49:00,42.8,33.3,30.07,WNW,283,0.0,2.0,69,0.00,,,0.00,18,WeatherCatV1.20B785,2013-10-24 21:49:00,
2013-10-24 17:50:00,42.8,33.3,30.07,WNW,283,0.0,1.0,69,0.00,,,0.00,18,WeatherCatV1.20B785,2013-10-24 21:50:00,
2013-10-24 17:52:00,42.8,33.3,30.07,WNW,283,1.0,2.0,69,0.00,,,0.00,16,WeatherCatV1.20B785,2013-10-24 21:52:00,
2013-10-24 17:54:00,42.7,33.2,30.07,West,281,0.0,1.0,69,0.00,,,0.00,16,WeatherCatV1.20B785,2013-10-24 21:54:00,
2013-10-24 17:55:00,42.7,33.2,30.07,SW,233,2.0,2.0,69,0.00,,,0.00,14,WeatherCatV1.20B785,2013-10-24 21:55:00,
2013-10-24 17:56:00,42.6,33.2,30.07,WSW,253,0.0,2.0,69,0.00,,,0.00,14,WeatherCatV1.20B785,2013-10-24 21:56:00,
2013-10-24 17:58:00,42.6,33.5,30.07,WSW,253,1.0,1.0,70,0.00,,,0.00,14,WeatherCatV1.20B785,2013-10-24 21:58:00,
2013-10-24 17:59:00,42.5,33.1,30.07,WSW,254,2.0,3.0,69,0.00,,,0.00,14,WeatherCatV1.20B785,2013-10-24 21:59:00,
2013-10-24 18:00:00,42.5,33.4,30.07,WSW,256,0.0,3.0,70,0.00,,,0.00,14,WeatherCatV1.20B785,2013-10-24 22:00:00,
2013-10-24 18:01:00,42.5,33.1,30.07,SSW,208,1.0,1.0,69,0.00,,,0.00,12,WeatherCatV1.20B785,2013-10-24 22:01:00,
2013-10-24 18:03:00,42.4,33.0,30.07,WSW,248,2.0,3.0,69,0.00,,,0.00,12,WeatherCatV1.20B785,2013-10-24 22:03:00,
2013-10-24 18:04:00,42.4,33.0,30.07,WSW,250,2.0,3.0,69,0.00,,,0.00,12,WeatherCatV1.20B785,2013-10-24 22:04:00,
2013-10-24 18:05:00,42.4,33.0,30.07,WSW,246,2.0,3.0,69,0.00,,,0.00,11,WeatherCatV1.20B785,2013-10-24 22:05:00,
2013-10-24 18:06:00,42.4,33.0,30.07,West,260,2.0,3.0,69,0.00,,,0.00,11,WeatherCatV1.20B785,2013-10-24 22:06:00,
2013-10-24 18:08:00,42.4,32.6,30.07,West,259,1.0,2.0,68,0.00,,,0.00,9,WeatherCatV1.20B785,2013-10-24 22:08:00,
2013-10-24 18:09:00,42.4,33.0,30.07,West,259,1.0,2.0,69,0.00,,,0.00,9,WeatherCatV1.20B785,2013-10-24 22:09:00,
2013-10-24 18:10:00,42.4,33.0,30.07,West,259,2.0,2.0,69,0.00,,,0.00,9,WeatherCatV1.20B785,2013-10-24 22:10:00,
2013-10-24 18:11:00,42.4,33.0,30.07,West,259,0.0,2.0,69,0.00,,,0.00,9,WeatherCatV1.20B785,2013-10-24 22:11:00,
2013-10-24 18:12:00,42.4,33.0,30.08,West,259,0.0,2.0,69,0.00,,,0.00,9,WeatherCatV1.20B785,2013-10-24 22:12:00,
2013-10-24 18:14:00,42.3,32.9,30.08,SW,223,0.0,2.0,69,0.00,,,0.00,7,WeatherCatV1.20B785,2013-10-24 22:14:00,
2013-10-24 18:15:00,42.3,32.9,30.08,SW,223,0.0,1.0,69,0.00,,,0.00,7,WeatherCatV1.20B785,2013-10-24 22:15:00,
2013-10-24 18:16:00,42.3,32.9,30.08,West,262,0.0,2.0,69,0.00,,,0.00,7,WeatherCatV1.20B785,2013-10-24 22:16:00,
2013-10-24 18:17:00,42.3,32.9,30.08,West,262,0.0,2.0,69,0.00,,,0.00,5,WeatherCatV1.20B785,2013-10-24 22:17:00,
2013-10-24 18:19:00,42.2,32.8,30.08,WSW,247,0.0,1.0,69,0.00,,,0.00,5,WeatherCatV1.20B785,2013-10-24 22:19:00,
2013-10-24 18:20:00,42.1,32.7,30.08,WSW,247,0.0,1.0,69,0.00,,,0.00,0,WeatherCatV1.20B785,2013-10-24 22:20:00,
2013-10-24 18:21:00,42.1,32.7,30.08,West,281,0.0,1.0,69,0.00,,,0.00,0,WeatherCatV1.20B785,2013-10-24 22:21:00,
2013-10-24 18:22:00,42.0,32.9,30.08,SSE,153,0.0,2.0,70,0.00,,,0.00,0,WeatherCatV1.20B785,2013-10-24 22:22:00,
2013-10-24 18:25:00,41.9,32.5,30.08,NW,308,1.0,3.0,69,0.00,,,0.00,0,WeatherCatV1.20B785,2013-10-24 22:25:00,
2013-10-24 18:26:00,41.9,32.1,30.08,SSE,153,1.0,3.0,68,0.00,,,0.00,0,WeatherCatV1.20B785,2013-10-24 22:26:00,
2013-10-24 18:27:00,41.9,32.1,30.08,NW,315,1.0,3.0,68,0.00,,,0.00,0,WeatherCatV1.20B785,2013-10-24 22:27:00,
2013-10-24 18:28:00,41.9,32.1,30.08,NW,310,2.0,3.0,68,0.00,,,0.00,0,WeatherCatV1.20B785,2013-10-24 22:28:00,
2013-10-24 18:30:00,41.9,31.8,30.08,West,277,1.0,2.0,67,0.00,,,0.00,0,WeatherCatV1.20B785,2013-10-24 22:30:00,
2013-10-24 18:31:00,42.0,31.9,30.08,WNW,302,1.0,2.0,67,0.00,,,0.00,0,WeatherCatV1.20B785,2013-10-24 22:31:00,
2013-10-24 18:33:00,42.0,31.9,30.08,WNW,302,0.0,0.0,67,0.00,,,0.00,0,WeatherCatV1.20B785,2013-10-24 22:33:00,
2013-10-24 18:35:00,42.0,31.5,30.08,WSW,252,2.0,8.0,66,0.00,,,0.00,0,WeatherCatV1.20B785,2013-10-24 22:35:00,
2013-10-24 18:36:00,42.1,31.6,30.08,NW,312,0.0,2.0,66,0.00,,,0.00,0,WeatherCatV1.20B785,2013-10-24 22:36:00,
2013-10-24 18:38:00,42.1,31.6,30.08,NW,312,0.0,1.0,66,0.00,,,0.00,0,WeatherCatV1.20B785,2013-10-24 22:38:00,
2013-10-24 18:39:00,42.1,31.6,30.08,WSW,250,0.0,2.0,66,0.00,,,0.00,0,WeatherCatV1.20B785,2013-10-24 22:39:00,
2013-10-24 18:41:00,42.2,31.7,30.09,WSW,248,1.0,2.0,66,0.00,,,0.00,0,WeatherCatV1.20B785,2013-10-24 22:41:00,
2013-10-24 18:43:00,42.2,31.3,30.09,West,271,0.0,2.0,65,0.00,,,0.00,0,WeatherCatV1.20B785,2013-10-24 22:43:00,
2013-10-24 18:44:00,42.2,31.7,30.09,WSW,252,0.0,1.0,66,0.00,,,0.00,0,WeatherCatV1.20B785,2013-10-24 22:44:00,
2013-10-24 18:47:00,42.3,31.8,30.09,NE,56,0.0,2.0,66,0.00,,,0.00,0,WeatherCatV1.20B785,2013-10-24 22:47:00,
2013-10-24 18:48:00,42.2,32.0,30.09,ENE,58,0.0,1.0,67,0.00,,,0.00,0,WeatherCatV1.20B785,2013-10-24 22:48:00,
2013-10-24 18:49:00,42.2,32.0,30.09,ENE,58,0.0,1.0,67,0.00,,,0.00,0,WeatherCatV1.20B785,2013-10-24 22:49:00,
2013-10-24 18:52:00,42.1,31.9,30.10,ENE,58,0.0,0.0,67,0.00,,,0.00,0,WeatherCatV1.20B785,2013-10-24 22:52:00,
2013-10-24 18:53:00,42.1,32.3,30.10,ENE,58,0.0,0.0,68,0.00,,,0.00,0,WeatherCatV1.20B785,2013-10-24 22:53:00,
2013-10-24 18:54:00,42.1,32.3,30.10,ENE,58,0.0,0.0,68,0.00,,,0.00,0,WeatherCatV1.20B785,2013-10-24 22:54:00,
2013-10-24 18:58:00,41.9,32.5,30.10,ENE,58,0.0,0.0,69,0.00,,,0.00,0,WeatherCatV1.20B785,2013-10-24 22:58:00,
2013-10-24 18:59:00,41.9,32.5,30.10,ENE,58,0.0,0.0,69,0.00,,,0.00,0,WeatherCatV1.20B785,2013-10-24 22:59:00,
2013-10-24 19:03:00,41.8,32.4,30.10,NW,308,1.0,2.0,69,0.00,,,0.00,0,WeatherCatV1.20B785,2013-10-24 23:03:00,
2013-10-24 19:04:00,41.8,32.4,30.10,WNW,303,2.0,2.0,69,0.00,,,0.00,0,WeatherCatV1.20B785,2013-10-24 23:04:00,
2013-10-24 19:09:00,41.8,34.5,30.10,WNW,289,0.0,1.0,75,0.00,,,0.00,0,WeatherCatV1.20B785,2013-10-24 23:09:00,
2013-10-24 19:14:00,41.6,33.6,30.10,West,263,4.0,5.0,73,0.00,,,0.00,0,WeatherCatV1.20B785,2013-10-24 23:14:00,
2013-10-24 19:15:00,41.6,33.6,30.10,West,281,2.0,5.0,73,0.00,,,0.00,0,WeatherCatV1.20B785,2013-10-24 23:15:00,
2013-10-24 19:16:00,41.5,33.5,30.10,WNW,291,2.0,3.0,73,0.00,,,0.00,0,WeatherCatV1.20B785,2013-10-24 23:16:00,
2013-10-24 19:19:00,41.5,32.8,30.10,WSW,254,8.0,9.0,71,0.00,,,0.00,0,WeatherCatV1.20B785,2013-10-24 23:19:00,
2013-10-24 19:20:00,41.6,32.9,30.10,SW,235,4.0,9.0,71,0.00,,,0.00,0,WeatherCatV1.20B785,2013-10-24 23:20:00,
2013-10-24 19:22:00,41.8,33.1,30.10,SW,217,4.0,6.0,71,0.00,,,0.00,0,WeatherCatV1.20B785,2013-10-24 23:22:00,
2013-10-24 19:24:00,41.9,32.8,30.10,WSW,250,5.0,6.0,70,0.00,,,0.00,0,WeatherCatV1.20B785,2013-10-24 23:24:00,
2013-10-24 19:25:00,41.9,32.8,30.10,WNW,289,7.0,12.0,70,0.00,,,0.00,0,WeatherCatV1.20B785,2013-10-24 23:25:00,
2013-10-24 19:27:00,42.1,32.7,30.10,West,273,4.0,6.0,69,0.00,,,0.00,0,WeatherCatV1.20B785,2013-10-24 23:27:00,
2013-10-24 19:30:00,42.2,32.8,30.10,West,275,3.0,5.0,69,0.00,,,0.00,0,WeatherCatV1.20B785,2013-10-24 23:30:00,
2013-10-24 19:31:00,42.2,32.8,30.10,West,266,3.0,8.0,69,0.00,,,0.00,0,WeatherCatV1.20B785,2013-10-24 23:31:00,
2013-10-24 19:33:00,42.2,32.8,30.10,West,264,2.0,4.0,69,0.00,,,0.00,0,WeatherCatV1.20B785,2013-10-24 23:33:00,
2013-10-24 19:35:00,42.3,32.5,30.10,WSW,240,9.0,9.0,68,0.00,,,0.00,0,WeatherCatV1.20B785,2013-10-24 23:35:00,
2013-10-24 19:36:00,42.3,32.5,30.10,SSW,213,4.0,9.0,68,0.00,,,0.00,0,WeatherCatV1.20B785,2013-10-24 23:36:00,
2013-10-24 19:37:00,42.3,32.5,30.10,NW,306,2.0,9.0,68,0.00,,,0.00,0,WeatherCatV1.20B785,2013-10-24 23:37:00,
2013-10-24 19:38:00,42.3,32.5,30.10,WNW,283,2.0,4.0,68,0.00,,,0.00,0,WeatherCatV1.20B785,2013-10-24 23:38:00,
2013-10-24 19:41:00,42.3,32.5,30.11,West,269,2.0,5.0,68,0.00,,,0.00,0,WeatherCatV1.20B785,2013-10-24 23:41:00,
2013-10-24 19:43:00,42.4,33.0,30.11,WNW,300,4.0,6.0,69,0.00,,,0.00,0,WeatherCatV1.20B785,2013-10-24 23:43:00,
2013-10-24 19:46:00,42.3,32.5,30.11,WSW,249,4.0,5.0,68,0.00,,,0.00,0,WeatherCatV1.20B785,2013-10-24 23:46:00,
2013-10-24 19:47:00,42.3,32.5,30.11,NW,305,1.0,5.0,68,0.00,,,0.00,0,WeatherCatV1.20B785,2013-10-24 23:47:00,
2013-10-24 19:48:00,42.3,32.5,30.11,West,270,3.0,6.0,68,0.00,,,0.00,0,WeatherCatV1.20B785,2013-10-24 23:48:00,
2013-10-24 19:50:00,42.3,32.5,30.11,WNW,298,4.0,8.0,68,0.00,,,0.00,0,WeatherCatV1.20B785,2013-10-24 23:50:00,
2013-10-24 19:51:00,42.3,32.5,30.11,West,277,2.0,8.0,68,0.00,,,0.00,0,WeatherCatV1.20B785,2013-10-24 23:51:00,
2013-10-24 19:52:00,42.3,32.9,30.11,West,264,2.0,4.0,69,0.00,,,0.00,0,WeatherCatV1.20B785,2013-10-24 23:52:00,
2013-10-24 19:53:00,42.3,32.5,30.11,WNW,298,2.0,6.0,68,0.00,,,0.00,0,WeatherCatV1.20B785,2013-10-24 23:53:00,
2013-10-24 19:56:00,42.3,33.2,30.11,West,267,5.0,5.0,70,0.00,,,0.00,0,WeatherCatV1.20B785,2013-10-24 23:56:00,
2013-10-24 19:57:00,42.3,32.5,30.11,West,267,4.0,8.0,68,0.00,,,0.00,0,WeatherCatV1.20B785,2013-10-24 23:57:00,
2013-10-24 19:58:00,42.3,32.9,30.11,WNW,297,4.0,8.0,69,0.00,,,0.00,0,WeatherCatV1.20B785,2013-10-24 23:58:00,
2013-10-24 20:01:00,42.3,32.5,30.11,WNW,287,3.0,8.0,68,0.00,,,0.00,0,WeatherCatV1.20B785,2013-10-25 00:01:00,
2013-10-24 20:02:00,42.3,32.5,30.11,West,264,4.0,6.0,68,0.00,,,0.00,0,WeatherCatV1.20B785,2013-10-25 00:02:00,
2013-10-24 20:03:00,42.4,32.6,30.11,WNW,296,7.0,8.0,68,0.00,,,0.00,0,WeatherCatV1.20B785,2013-10-25 00:03:00,
2013-10-24 20:05:00,42.4,32.6,30.12,West,278,2.0,8.0,68,0.00,,,0.00,0,WeatherCatV1.20B785,2013-10-25 00:05:00,
2013-10-24 20:06:00,42.4,32.6,30.12,WSW,254,2.0,8.0,68,0.00,,,0.00,0,WeatherCatV1.20B785,2013-10-25 00:06:00,
2013-10-24 20:07:00,42.5,32.3,30.12,West,260,2.0,5.0,67,0.00,,,0.00,0,WeatherCatV1.20B785,2013-10-25 00:07:00,
2013-10-24 20:08:00,42.5,32.7,30.12,WNW,294,5.0,5.0,68,0.00,,,0.00,0,WeatherCatV1.20B785,2013-10-25 00:08:00,
2013-10-24 20:11:00,42.5,32.3,30.12,WSW,243,5.0,5.0,67,0.00,,,0.00,0,WeatherCatV1.20B785,2013-10-25 00:11:00,
2013-10-24 20:12:00,42.5,32.3,30.12,WSW,253,2.0,5.0,67,0.00,,,0.00,0,WeatherCatV1.20B785,2013-10-25 00:12:00,
2013-10-24 20:13:00,42.5,32.3,30.12,WSW,237,4.0,6.0,67,0.00,,,0.00,0,WeatherCatV1.20B785,2013-10-25 00:13:00,
2013-10-24 20:14:00,42.5,32.3,30.12,WSW,255,3.0,6.0,67,0.00,,,0.00,0,WeatherCatV1.20B785,2013-10-25 00:14:00,
2013-10-24 20:16:00,42.6,32.4,30.12,West,271,4.0,9.0,67,0.00,,,0.00,0,WeatherCatV1.20B785,2013-10-25 00:16:00,
2013-10-24 20:17:00,42.6,32.4,30.12,West,262,2.0,4.0,67,0.00,,,0.00,0,WeatherCatV1.20B785,2013-10-25 00:17:00,
2013-10-24 20:19:00,42.6,32.4,30.12,WSW,255,2.0,4.0,67,0.00,,,0.00,0,WeatherCatV1.20B785,2013-10-25 00:19:00,
2013-10-24 20:21:00,42.7,32.9,30.12,WSW,256,0.0,4.0,68,0.00,,,0.00,0,WeatherCatV1.20B785,2013-10-25 00:21:00,
2013-10-24 20:22:00,42.7,32.5,30.12,WNW,282,3.0,3.0,67,0.00,,,0.00,0,WeatherCatV1.20B785,2013-10-25 00:22:00,
2013-10-24 20:24:00,42.6,32.8,30.12,West,275,3.0,3.0,68,0.00,,,0.00,0,WeatherCatV1.20B785,2013-10-25 00:24:00,
2013-10-24 20:26:00,42.6,32.8,30.12,WSW,246,4.0,4.0,68,0.00,,,0.00,0,WeatherCatV1.20B785,2013-10-25 00:26:00,
2013-10-24 20:27:00,42.5,32.7,30.12,WSW,239,2.0,7.0,68,0.00,,,0.00,0,WeatherCatV1.20B785,2013-10-25 00:27:00,
2013-10-24 20:28:00,42.5,32.7,30.12,WSW,244,1.0,7.0,68,0.00,,,0.00,0,WeatherCatV1.20B785,2013-10-25 00:28:00,
2013-10-24 20:29:00,42.5,32.7,30.12,WSW,248,0.0,3.0,68,0.00,,,0.00,0,WeatherCatV1.20B785,2013-10-25 00:29:00,
2013-10-24 20:32:00,42.5,33.1,30.12,WSW,248,1.0,2.0,69,0.00,,,0.00,0,WeatherCatV1.20B785,2013-10-25 00:32:00,
2013-10-24 20:34:00,42.4,32.6,30.13,WNW,294,3.0,3.0,68,0.00,,,0.00,0,WeatherCatV1.20B785,2013-10-25 00:34:00,
2013-10-24 20:35:00,42.4,32.6,30.12,West,267,3.0,3.0,68,0.00,,,0.00,0,WeatherCatV1.20B785,2013-10-25 00:35:00,
2013-10-24 20:37:00,42.4,33.0,30.12,WSW,255,2.0,4.0,69,0.00,,,0.00,0,WeatherCatV1.20B785,2013-10-25 00:37:00,
2013-10-24 20:39:00,42.3,32.9,30.13,West,262,1.0,2.0,69,0.00,,,0.00,0,WeatherCatV1.20B785,2013-10-25 00:39:00,
2013-10-24 20:40:00,42.3,32.9,30.13,NW,322,3.0,5.0,69,0.00,,,0.00,0,WeatherCatV1.20B785,2013-10-25 00:40:00,
2013-10-24 20:42:00,42.2,33.1,30.13,West,263,2.0,3.0,70,0.00,,,0.00,0,WeatherCatV1.20B785,2013-10-25 00:42:00,
2013-10-24 20:43:00,42.1,33.0,30.13,WNW,286,2.0,3.0,70,0.00,,,0.00,0,WeatherCatV1.20B785,2013-10-25 00:43:00,
2013-10-24 20:44:00,42.1,33.4,30.13,West,266,2.0,3.0,71,0.00,,,0.00,0,WeatherCatV1.20B785,2013-10-25 00:44:00,
2013-10-24 20:45:00,42.0,33.3,30.13,West,278,2.0,4.0,71,0.00,,,0.00,0,WeatherCatV1.20B785,2013-10-25 00:45:00,
2013-10-24 20:47:00,41.9,33.2,30.13,WNW,296,2.0,3.0,71,0.00,,,0.00,0,WeatherCatV1.20B785,2013-10-25 00:47:00,
2013-10-24 20:48:00,41.9,33.2,30.13,West,279,2.0,3.0,71,0.00,,,0.00,0,WeatherCatV1.20B785,2013-10-25 00:48:00,
2013-10-24 20:49:00,41.9,33.2,30.13,West,279,2.0,2.0,71,0.00,,,0.00,0,WeatherCatV1.20B785,2013-10-25 00:49:00,
2013-10-24 20:50:00,41.9,33.2,30.13,West,268,2.0,2.0,71,0.00,,,0.00,0,WeatherCatV1.20B785,2013-10-25 00:50:00,
2013-10-24 20:53:00,41.8,33.5,30.13,West,267,2.0,3.0,72,0.00,,,0.00,0,WeatherCatV1.20B785,2013-10-25 00:53:00,
2013-10-24 20:54:00,41.8,33.5,30.13,West,266,1.0,3.0,72,0.00,,,0.00,0,WeatherCatV1.20B785,2013-10-25 00:54:00,
2013-10-24 20:55:00,41.7,33.3,30.13,West,266,1.0,2.0,72,0.00,,,0.00,0,WeatherCatV1.20B785,2013-10-25 00:55:00,
2013-10-24 20:56:00,41.7,33.3,30.13,West,266,3.0,3.0,72,0.00,,,0.00,0,WeatherCatV1.20B785,2013-10-25 00:56:00,
2013-10-24 20:58:00,41.6,33.2,30.13,West,271,2.0,4.0,72,0.00,,,0.00,0,WeatherCatV1.20B785,2013-10-25 00:58:00,
2013-10-24 20:59:00,41.6,33.2,30.13,West,267,3.0,4.0,72,0.00,,,0.00,0,WeatherCatV1.20B785,2013-10-25 00:59:00,
2013-10-24 21:00:00,41.5,33.2,30.13,West,263,2.0,4.0,72,0.00,,,0.00,0,WeatherCatV1.20B785,2013-10-25 01:00:00,
2013-10-24 21:02:00,41.5,33.2,30.13,West,262,3.0,4.0,72,0.00,,,0.00,0,WeatherCatV1.20B785,2013-10-25 01:02:00,
2013-10-24 21:03:00,41.5,33.5,30.13,West,268,2.0,4.0,73,0.00,,,0.00,0,WeatherCatV1.20B785,2013-10-25 01:03:00,
2013-10-24 21:04:00,41.5,33.5,30.13,WSW,252,3.0,4.0,73,0.00,,,0.00,0,WeatherCatV1.20B785,2013-10-25 01:04:00,
2013-10-24 21:06:00,41.4,33.1,30.13,West,263,2.0,6.0,72,0.00,,,0.00,0,WeatherCatV1.20B785,2013-10-25 01:06:00,
2013-10-24 21:07:00,41.4,33.4,30.13,WSW,241,2.0,3.0,73,0.00,,,0.00,0,WeatherCatV1.20B785,2013-10-25 01:07:00,
2013-10-24 21:09:00,41.4,33.4,30.13,West,280,3.0,4.0,73,0.00,,,0.00,0,WeatherCatV1.20B785,2013-10-25 01:09:00,
2013-10-24 21:10:00,41.4,33.4,30.13,West,266,1.0,4.0,73,0.00,,,0.00,0,WeatherCatV1.20B785,2013-10-25 01:10:00,
2013-10-24 21:11:00,41.3,33.3,30.13,West,265,2.0,3.0,73,0.00,,,0.00,0,WeatherCatV1.20B785,2013-10-25 01:11:00,
2013-10-24 21:12:00,41.3,33.3,30.13,West,275,2.0,4.0,73,0.00,,,0.00,0,WeatherCatV1.20B785,2013-10-25 01:12:00,
2013-10-24 21:13:00,41.3,33.3,30.13,West,271,4.0,4.0,73,0.00,,,0.00,0,WeatherCatV1.20B785,2013-10-25 01:13:00,
2013-10-24 21:15:00,41.2,33.2,30.13,West,281,3.0,4.0,73,0.00,,,0.00,0,WeatherCatV1.20B785,2013-10-25 01:15:00,
2013-10-24 21:17:00,41.1,33.1,30.13,WSW,258,2.0,3.0,73,0.00,,,0.00,0,WeatherCatV1.20B785,2013-10-25 01:17:00,
2013-10-24 21:19:00,41.1,33.5,30.13,West,266,1.0,4.0,74,0.00,,,0.00,0,WeatherCatV1.20B785,2013-10-25 01:19:00,
2013-10-24 21:20:00,41.1,33.1,30.13,WNW,293,3.0,3.0,73,0.00,,,0.00,0,WeatherCatV1.20B785,2013-10-25 01:20:00,
2013-10-24 21:21:00,41.0,33.4,30.13,West,270,3.0,4.0,74,0.00,,,0.00,0,WeatherCatV1.20B785,2013-10-25 01:21:00,
2013-10-24 21:22:00,41.0,33.4,30.13,WNW,297,2.0,4.0,74,0.00,,,0.00,0,WeatherCatV1.20B785,2013-10-25 01:22:00,
2013-10-24 21:25:00,40.9,33.3,30.13,West,271,3.0,4.0,74,0.00,,,0.00,0,WeatherCatV1.20B785,2013-10-25 01:25:00,
2013-10-24 21:26:00,40.9,33.3,30.14,NW,306,1.0,3.0,74,0.00,,,0.00,0,WeatherCatV1.20B785,2013-10-25 01:26:00,
2013-10-24 21:27:00,40.8,33.2,30.13,WSW,244,2.0,3.0,74,0.00,,,0.00,0,WeatherCatV1.20B785,2013-10-25 01:27:00,
2013-10-24 21:28:00,40.8,33.2,30.13,West,265,1.0,3.0,74,0.00,,,0.00,0,WeatherCatV1.20B785,2013-10-25 01:28:00,
2013-10-24 21:30:00,40.8,33.2,30.13,WSW,258,2.0,2.0,74,0.00,,,0.00,0,WeatherCatV1.20B785,2013-10-25 01:30:00,
2013-10-24 21:32:00,40.7,33.1,30.14,West,266,3.0,5.0,74,0.00,,,0.00,0,WeatherCatV1.20B785,2013-10-25 01:32:00,
2013-10-24 21:33:00,40.6,33.3,30.13,WSW,248,3.0,5.0,75,0.00,,,0.00,0,WeatherCatV1.20B785,2013-10-25 01:33:00,
2013-10-24 21:35:00,40.6,33.3,30.14,West,269,1.0,3.0,75,0.00,,,0.00,0,WeatherCatV1.20B785,2013-10-25 01:35:00,
2013-10-24 21:36:00,40.6,33.3,30.13,West,269,1.0,2.0,75,0.00,,,0.00,0,WeatherCatV1.20B785,2013-10-25 01:36:00,
2013-10-24 21:38:00,40.5,33.2,30.13,West,269,1.0,4.0,75,0.00,,,0.00,0,WeatherCatV1.20B785,2013-10-25 01:38:00,
2013-10-24 21:39:00,40.5,33.2,30.13,WSW,256,3.0,4.0,75,0.00,,,0.00,0,WeatherCatV1.20B785,2013-10-25 01:39:00,
2013-10-24 21:40:00,40.4,33.1,30.13,West,276,3.0,4.0,75,0.00,,,0.00,0,WeatherCatV1.20B785,2013-10-25 01:40:00,
2013-10-24 21:41:00,40.4,33.1,30.13,WNW,296,4.0,4.0,75,0.00,,,0.00,0,WeatherCatV1.20B785,2013-10-25 01:41:00,
2013-10-24 21:43:00,40.3,33.0,30.13,West,273,2.0,6.0,75,0.00,,,0.00,0,WeatherCatV1.20B785,2013-10-25 01:43:00,
2013-10-24 21:44:00,40.3,33.0,30.14,West,260,2.0,6.0,75,0.00,,,0.00,0,WeatherCatV1.20B785,2013-10-25 01:44:00,
2013-10-24 21:46:00,40.2,32.9,30.14,WNW,295,0.0,3.0,75,0.00,,,0.00,0,WeatherCatV1.20B785,2013-10-25 01:46:00,
2013-10-24 21:48:00,40.2,32.9,30.14,West,260,2.0,2.0,75,0.00,,,0.00,0,WeatherCatV1.20B785,2013-10-25 01:48:00,
2013-10-24 21:49:00,40.1,32.8,30.14,WSW,258,3.0,3.0,75,0.00,,,0.00,0,WeatherCatV1.20B785,2013-10-25 01:49:00,
2013-10-24 21:50:00,40.1,32.8,30.14,West,264,2.0,3.0,75,0.00,,,0.00,0,WeatherCatV1.20B785,2013-10-25 01:50:00,
2013-10-24 21:51:00,40.1,32.8,30.14,WSW,258,2.0,3.0,75,0.00,,,0.00,0,WeatherCatV1.20B785,2013-10-25 01:51:00,
2013-10-24 21:52:00,40.1,32.8,30.14,WSW,258,2.0,3.0,75,0.00,,,0.00,0,WeatherCatV1.20B785,2013-10-25 01:52:00,
2013-10-24 21:53:00,40.0,32.7,30.14,WSW,258,2.0,7.0,75,0.00,,,0.00,0,WeatherCatV1.20B785,2013-10-25 01:53:00,
2013-10-24 21:55:00,40.0,32.7,30.14,NW,310,3.0,5.0,75,0.00,,,0.00,0,WeatherCatV1.20B785,2013-10-25 01:55:00,
2013-10-24 21:57:00,40.0,32.7,30.14,NW,309,4.0,4.0,75,0.00,,,0.00,0,WeatherCatV1.20B785,2013-10-25 01:57:00,
2013-10-24 21:58:00,40.0,32.7,30.14,West,268,1.0,4.0,75,0.00,,,0.00,0,WeatherCatV1.20B785,2013-10-25 01:58:00,
2013-10-24 21:59:00,40.0,32.7,30.14,West,267,0.0,2.0,75,0.00,,,0.00,0,WeatherCatV1.20B785,2013-10-25 01:59:00,
2013-10-24 22:00:00,40.0,32.7,30.14,West,279,3.0,3.0,75,0.00,,,0.00,0,WeatherCatV1.20B785,2013-10-25 02:00:00,
2013-10-24 22:01:00,40.0,32.7,30.14,NW,316,1.0,3.0,75,0.00,,,0.00,0,WeatherCatV1.20B785,2013-10-25 02:01:00,
2013-10-24 22:02:00,40.0,32.7,30.14,WSW,252,3.0,4.0,75,0.00,,,0.00,0,WeatherCatV1.20B785,2013-10-25 02:02:00,
2013-10-24 22:03:00,39.9,32.6,30.14,SSW,205,1.0,4.0,75,0.00,,,0.00,0,WeatherCatV1.20B785,2013-10-25 02:03:00,
2013-10-24 22:04:00,39.9,32.6,30.14,WSW,258,1.0,6.0,75,0.00,,,0.00,0,WeatherCatV1.20B785,2013-10-25 02:04:00,
2013-10-24 22:05:00,39.9,32.6,30.14,West,279,4.0,4.0,75,0.00,,,0.00,0,WeatherCatV1.20B785,2013-10-25 02:05:00,
2013-10-24 22:06:00,39.8,32.5,30.14,WNW,296,4.0,4.0,75,0.00,,,0.00,0,WeatherCatV1.20B785,2013-10-25 02:06:00,
2013-10-24 22:07:00,39.8,32.5,30.14,WSW,254,3.0,5.0,75,0.00,,,0.00,0,WeatherCatV1.20B785,2013-10-25 02:07:00,
2013-10-24 22:08:00,39.8,32.5,30.15,WSW,254,2.0,5.0,75,0.00,,,0.00,0,WeatherCatV1.20B785,2013-10-25 02:08:00,
2013-10-24 22:09:00,39.8,32.5,30.15,WNW,295,2.0,5.0,75,0.00,,,0.00,0,WeatherCatV1.20B785,2013-10-25 02:09:00,
2013-10-24 22:11:00,39.8,32.5,30.15,WNW,293,1.0,2.0,75,0.00,,,0.00,0,WeatherCatV1.20B785,2013-10-25 02:11:00,
2013-10-24 22:12:00,39.8,32.5,30.15,SW,226,1.0,2.0,75,0.00,,,0.00,0,WeatherCatV1.20B785,2013-10-25 02:12:00,
2013-10-24 22:13:00,39.8,32.5,30.15,SW,225,0.0,1.0,75,0.00,,,0.00,0,WeatherCatV1.20B785,2013-10-25 02:13:00,
2013-10-24 22:14:00,39.7,32.4,30.15,SW,225,0.0,1.0,75,0.00,,,0.00,0,WeatherCatV1.20B785,2013-10-25 02:14:00,
2013-10-24 22:16:00,39.7,32.4,30.15,WNW,291,1.0,7.0,75,0.00,,,0.00,0,WeatherCatV1.20B785,2013-10-25 02:16:00,
2013-10-24 22:18:00,39.7,32.4,30.15,WNW,297,1.0,2.0,75,0.00,,,0.00,0,WeatherCatV1.20B785,2013-10-25 02:18:00,
2013-10-24 22:19:00,39.7,32.4,30.15,WNW,296,2.0,2.0,75,0.00,,,0.00,0,WeatherCatV1.20B785,2013-10-25 02:19:00,
2013-10-24 22:21:00,39.6,33.0,30.15,WNW,291,2.0,3.0,77,0.00,,,0.00,0,WeatherCatV1.20B785,2013-10-25 02:21:00,
2013-10-24 22:23:00,39.6,33.3,30.15,WNW,287,2.0,3.0,78,0.00,,,0.00,0,WeatherCatV1.20B785,2013-10-25 02:23:00,
2013-10-24 22:24:00,39.3,32.7,30.15,West,267,3.0,3.0,77,0.00,,,0.00,0,WeatherCatV1.20B785,2013-10-25 02:24:00,
2013-10-24 22:25:00,39.3,32.7,30.15,West,270,4.0,4.0,77,0.00,,,0.00,0,WeatherCatV1.20B785,2013-10-25 02:25:00,
2013-10-24 22:26:00,39.2,32.6,30.15,WSW,257,4.0,4.0,77,0.00,,,0.00,0,WeatherCatV1.20B785,2013-10-25 02:26:00,
2013-10-24 22:28:00,39.1,32.5,30.15,West,264,3.0,5.0,77,0.00,,,0.00,0,WeatherCatV1.20B785,2013-10-25 02:28:00,
2013-10-24 22:29:00,39.1,32.5,30.15,WSW,256,3.0,4.0,77,0.00,,,0.00,0,WeatherCatV1.20B785,2013-10-25 02:29:00,
2013-10-24 22:30:00,39.0,32.4,30.15,West,273,2.0,4.0,77,0.00,,,0.00,0,WeatherCatV1.20B785,2013-10-25 02:30:00,
2013-10-24 22:31:00,39.0,32.4,30.14,West,281,3.0,5.0,77,0.00,,,0.00,0,WeatherCatV1.20B785,2013-10-25 02:31:00,
2013-10-24 22:32:00,38.9,32.3,30.14,West,262,3.0,5.0,77,0.00,,,0.00,0,WeatherCatV1.20B785,2013-10-25 02:32:00,
2013-10-24 22:33:00,38.9,32.3,30.15,WSW,257,3.0,5.0,77,0.00,,,0.00,0,WeatherCatV1.20B785,2013-10-25 02:33:00,
2013-10-24 22:34:00,38.9,32.3,30.15,WSW,247,3.0,5.0,77,0.00,,,0.00,0,WeatherCatV1.20B785,2013-10-25 02:34:00,
2013-10-24 22:35:00,38.8,32.2,30.15,West,264,3.0,5.0,77,0.00,,,0.00,0,WeatherCatV1.20B785,2013-10-25 02:35:00,
2013-10-24 22:36:00,38.9,32.3,30.15,West,273,2.0,5.0,77,0.00,,,0.00,0,WeatherCatV1.20B785,2013-10-25 02:36:00,
2013-10-24 22:37:00,38.8,32.2,30.15,West,261,3.0,3.0,77,0.00,,,0.00,0,WeatherCatV1.20B785,2013-10-25 02:37:00,
2013-10-24 22:39:00,38.8,32.2,30.15,West,265,1.0,6.0,77,0.00,,,0.00,0,WeatherCatV1.20B785,2013-10-25 02:39:00,
2013-10-24 22:41:00,38.9,32.3,30.15,WSW,254,2.0,3.0,77,0.00,,,0.00,0,WeatherCatV1.20B785,2013-10-25 02:41:00,
2013-10-24 22:42:00,38.9,32.3,30.15,WSW,244,1.0,4.0,77,0.00,,,0.00,0,WeatherCatV1.20B785,2013-10-25 02:42:00,
2013-10-24 22:43:00,38.9,32.3,30.15,West,270,1.0,4.0,77,0.00,,,0.00,0,WeatherCatV1.20B785,2013-10-25 02:43:00,
2013-10-24 22:44:00,38.8,32.2,30.15,WSW,252,0.0,2.0,77,0.00,,,0.00,0,WeatherCatV1.20B785,2013-10-25 02:44:00,
2013-10-24 22:45:00,38.9,32.3,30.15,WSW,255,1.0,2.0,77,0.00,,,0.00,0,WeatherCatV1.20B785,2013-10-25 02:45:00,
2013-10-24 22:46:00,38.9,32.3,30.15,West,260,2.0,2.0,77,0.00,,,0.00,0,WeatherCatV1.20B785,2013-10-25 02:46:00,
2013-10-24 22:47:00,38.9,32.3,30.15,West,260,1.0,2.0,77,0.00,,,0.00,0,WeatherCatV1.20B785,2013-10-25 02:47:00,
2013-10-24 22:48:00,38.9,32.3,30.15,West,260,0.0,2.0,77,0.00,,,0.00,0,WeatherCatV1.20B785,2013-10-25 02:48:00,
2013-10-24 22:49:00,38.8,32.2,30.15,West,260,0.0,1.0,77,0.00,,,0.00,0,WeatherCatV1.20B785,2013-10-25 02:49:00,
2013-10-24 22:50:00,38.8,32.2,30.14,West,260,0.0,1.0,77,0.00,,,0.00,0,WeatherCatV1.20B785,2013-10-25 02:50:00,
2013-10-24 22:51:00,38.8,32.2,30.14,West,260,0.0,1.0,77,0.00,,,0.00,0,WeatherCatV1.20B785,2013-10-25 02:51:00,
2013-10-24 22:52:00,38.8,32.2,30.15,SW,231,2.0,2.0,77,0.00,,,0.00,0,WeatherCatV1.20B785,2013-10-25 02:52:00,
2013-10-24 22:53:00,38.8,32.2,30.15,South,183,0.0,2.0,77,0.00,,,0.00,0,WeatherCatV1.20B785,2013-10-25 02:53:00,
2013-10-24 22:54:00,38.7,32.1,30.15,South,183,0.0,0.0,77,0.00,,,0.00,0,WeatherCatV1.20B785,2013-10-25 02:54:00,
2013-10-24 22:55:00,38.7,32.1,30.14,SSW,207,2.0,2.0,77,0.00,,,0.00,0,WeatherCatV1.20B785,2013-10-25 02:55:00,
2013-10-24 22:56:00,38.6,32.0,30.14,SSW,206,0.0,2.0,77,0.00,,,0.00,0,WeatherCatV1.20B785,2013-10-25 02:56:00,
2013-10-24 22:57:00,38.6,32.0,30.14,SSW,206,0.0,2.0,77,0.00,,,0.00,0,WeatherCatV1.20B785,2013-10-25 02:57:00,
2013-10-24 22:58:00,38.5,31.9,30.14,SSW,206,0.0,0.0,77,0.00,,,0.00,0,WeatherCatV1.20B785,2013-10-25 02:58:00,
2013-10-24 22:59:00,38.4,31.8,30.15,SE,127,0.0,1.0,77,0.00,,,0.00,0,WeatherCatV1.20B785,2013-10-25 02:59:00,
2013-10-24 23:00:00,38.2,32.0,30.15,ESE,123,1.0,1.0,78,0.00,,,0.00,0,WeatherCatV1.20B785,2013-10-25 03:00:00,
2013-10-24 23:02:00,38.0,31.8,30.15,ESE,123,0.0,0.0,78,0.00,,,0.00,0,WeatherCatV1.20B785,2013-10-25 03:02:00,
2013-10-24 23:04:00,37.7,31.5,30.15,ESE,113,0.0,3.0,78,0.00,,,0.00,0,WeatherCatV1.20B785,2013-10-25 03:04:00,
2013-10-24 23:05:00,37.6,31.7,30.15,ESE,113,0.0,1.0,79,0.00,,,0.00,0,WeatherCatV1.20B785,2013-10-25 03:05:00,
2013-10-24 23:06:00,37.5,31.6,30.15,ESE,113,1.0,1.0,79,0.00,,,0.00,0,WeatherCatV1.20B785,2013-10-25 03:06:00,
2013-10-24 23:07:00,37.5,31.6,30.15,ESE,113,0.0,1.0,79,0.00,,,0.00,0,WeatherCatV1.20B785,2013-10-25 03:07:00,
2013-10-24 23:08:00,37.4,31.5,30.15,SSE,154,1.0,2.0,79,0.00,,,0.00,0,WeatherCatV1.20B785,2013-10-25 03:08:00,
2013-10-24 23:09:00,37.4,31.5,30.15,SE,134,1.0,2.0,79,0.00,,,0.00,0,WeatherCatV1.20B785,2013-10-25 03:09:00,
2013-10-24 23:10:00,37.4,31.8,30.14,West,261,2.0,2.0,80,0.00,,,0.00,0,WeatherCatV1.20B785,2013-10-25 03:10:00,
2013-10-24 23:12:00,37.3,31.7,30.15,ESE,113,1.0,2.0,80,0.00,,,0.00,0,WeatherCatV1.20B785,2013-10-25 03:12:00,
2013-10-24 23:13:00,37.2,31.6,30.15,ESE,113,0.0,2.0,80,0.00,,,0.00,0,WeatherCatV1.20B785,2013-10-25 03:13:00,
2013-10-24 23:14:00,37.2,31.6,30.15,ESE,121,1.0,2.0,80,0.00,,,0.00,0,WeatherCatV1.20B785,2013-10-25 03:14:00,
2013-10-24 23:15:00,37.2,31.6,30.15,ESE,121,0.0,2.0,80,0.00,,,0.00,0,WeatherCatV1.20B785,2013-10-25 03:15:00,
2013-10-24 23:16:00,37.2,31.6,30.15,ESE,121,0.0,1.0,80,0.00,,,0.00,0,WeatherCatV1.20B785,2013-10-25 03:16:00,
2013-10-24 23:17:00,37.1,31.8,30.15,SE,125,0.0,1.0,81,0.00,,,0.00,0,WeatherCatV1.20B785,2013-10-25 03:17:00,
2013-10-24 23:18:00,37.1,31.8,30.15,SE,125,0.0,1.0,81,0.00,,,0.00,0,WeatherCatV1.20B785,2013-10-25 03:18:00,
2013-10-24 23:19:00,37.0,31.7,30.15,SE,125,0.0,0.0,81,0.00,,,0.00,0,WeatherCatV1.20B785,2013-10-25 03:19:00,
2013-10-24 23:20:00,37.0,31.7,30.15,SE,125,0.0,0.0,81,0.00,,,0.00,0,WeatherCatV1.20B785,2013-10-25 03:20:00,
2013-10-24 23:21:00,36.9,31.6,30.15,SE,125,0.0,0.0,81,0.00,,,0.00,0,WeatherCatV1.20B785,2013-10-25 03:21:00,
2013-10-24 23:22:00,36.8,31.5,30.15,ESE,120,0.0,1.0,81,0.00,,,0.00,0,WeatherCatV1.20B785,2013-10-25 03:22:00,
2013-10-24 23:23:00,36.8,31.5,30.15,East,92,0.0,5.0,81,0.00,,,0.00,0,WeatherCatV1.20B785,2013-10-25 03:23:00,
2013-10-24 23:24:00,36.8,31.5,30.15,ESE,116,1.0,5.0,81,0.00,,,0.00,0,WeatherCatV1.20B785,2013-10-25 03:24:00,
2013-10-24 23:25:00,36.8,31.5,30.15,SE,131,2.0,3.0,81,0.00,,,0.00,0,WeatherCatV1.20B785,2013-10-25 03:25:00,
2013-10-24 23:27:00,36.9,31.6,30.15,SE,131,0.0,2.0,81,0.00,,,0.00,0,WeatherCatV1.20B785,2013-10-25 03:27:00,
2013-10-24 23:28:00,36.9,31.6,30.15,SE,132,1.0,1.0,81,0.00,,,0.00,0,WeatherCatV1.20B785,2013-10-25 03:28:00,
2013-10-24 23:29:00,37.0,31.7,30.15,SE,145,0.0,1.0,81,0.00,,,0.00,0,WeatherCatV1.20B785,2013-10-25 03:29:00,
2013-10-24 23:30:00,37.0,31.7,30.15,South,175,2.0,2.0,81,0.00,,,0.00,0,WeatherCatV1.20B785,2013-10-25 03:30:00,
2013-10-24 23:32:00,37.1,31.8,30.15,SSE,153,1.0,2.0,81,0.00,,,0.00,0,WeatherCatV1.20B785,2013-10-25 03:32:00,
2013-10-24 23:34:00,37.1,31.8,30.15,SE,133,0.0,1.0,81,0.00,,,0.00,0,WeatherCatV1.20B785,2013-10-25 03:34:00,
2013-10-24 23:35:00,37.2,31.9,30.16,SE,144,0.0,1.0,81,0.00,,,0.00,0,WeatherCatV1.20B785,2013-10-25 03:35:00,
2013-10-24 23:36:00,37.2,31.9,30.16,SE,144,0.0,1.0,81,0.00,,,0.00,0,WeatherCatV1.20B785,2013-10-25 03:36:00,
2013-10-24 23:37:00,37.1,31.8,30.16,SE,144,0.0,1.0,81,0.00,,,0.00,0,WeatherCatV1.20B785,2013-10-25 03:37:00,
2013-10-24 23:39:00,37.1,32.1,30.16,SSE,152,0.0,2.0,82,0.00,,,0.00,0,WeatherCatV1.20B785,2013-10-25 03:39:00,
2013-10-24 23:40:00,37.0,31.7,30.16,SSE,163,0.0,1.0,81,0.00,,,0.00,0,WeatherCatV1.20B785,2013-10-25 03:40:00,
2013-10-24 23:41:00,37.0,31.7,30.16,West,273,1.0,1.0,81,0.00,,,0.00,0,WeatherCatV1.20B785,2013-10-25 03:41:00,
2013-10-24 23:42:00,36.9,31.6,30.16,ESE,102,0.0,5.0,81,0.00,,,0.00,0,WeatherCatV1.20B785,2013-10-25 03:42:00,
2013-10-24 23:44:00,36.8,31.8,30.16,ESE,102,0.0,0.0,82,0.00,,,0.00,0,WeatherCatV1.20B785,2013-10-25 03:44:00,
2013-10-24 23:45:00,36.8,31.8,30.16,ESE,103,0.0,1.0,82,0.00,,,0.00,0,WeatherCatV1.20B785,2013-10-25 03:45:00,
2013-10-24 23:46:00,36.7,32.0,30.16,ESE,103,0.0,1.0,83,0.00,,,0.00,0,WeatherCatV1.20B785,2013-10-25 03:46:00,
2013-10-24 23:48:00,36.6,31.6,30.15,WSW,250,1.0,1.0,82,0.00,,,0.00,0,WeatherCatV1.20B785,2013-10-25 03:48:00,
2013-10-24 23:49:00,36.6,31.9,30.16,SW,235,0.0,2.0,83,0.00,,,0.00,0,WeatherCatV1.20B785,2013-10-25 03:49:00,
2013-10-24 23:50:00,36.5,31.8,30.16,SW,235,0.0,2.0,83,0.00,,,0.00,0,WeatherCatV1.20B785,2013-10-25 03:50:00,
2013-10-24 23:51:00,36.5,31.8,30.15,SW,235,0.0,2.0,83,0.00,,,0.00,0,WeatherCatV1.20B785,2013-10-25 03:51:00,
2013-10-24 23:52:00,36.5,31.8,30.15,SW,235,1.0,1.0,83,0.00,,,0.00,0,WeatherCatV1.20B785,2013-10-25 03:52:00,
2013-10-24 23:54:00,36.3,31.6,30.16,SW,235,0.0,2.0,83,0.00,,,0.00,0,WeatherCatV1.20B785,2013-10-25 03:54:00,
2013-10-24 23:56:00,36.1,31.5,30.15,SW,235,0.0,1.0,83,0.00,,,0.00,0,WeatherCatV1.20B785,2013-10-25 03:56:00,
2013-10-24 23:57:00,36.0,31.6,30.15,SW,235,0.0,1.0,84,0.00,,,0.00,0,WeatherCatV1.20B785,2013-10-25 03:57:00,
2013-10-24 23:59:00,35.8,31.5,30.15,SW,235,1.0,1.0,84,0.00,,,0.00,0,WeatherCatV1.20B785,2013-10-25 03:59:00,